Wetterdaten: Sonntag, 08.11.2015
Datum Zeit Temp. Aussen Temp. o. S. +5cm Feuchte Auss BlattFeu 1 Luftdruck Regen Sonnenschein Regendauer Solar Windben Empfang
08.11.2015 00:00 15,9 C 15,0 C 13,3 C 86 % 0 lf 1024,2 hPa 0,0 l/m 0 min 0 min 0 W/m 16,7 km/h (3 Bft) 95,74 %
08.11.2015 00:02 15,9 C 15,0 C 13,3 C 86 % 0 lf 1024,3 hPa 0,0 l/m 0 min 0 min 0 W/m 10,5 km/h (2 Bft) 94,87 %
08.11.2015 00:06 15,8 C 15,0 C 13,3 C 86 % 0 lf 1024,4 hPa 0,0 l/m 0 min 0 min 0 W/m 14,6 km/h (3 Bft) 97,87 %
08.11.2015 00:08 15,7 C 15,0 C 13,3 C 86 % 0 lf 1024,6 hPa 0,0 l/m 0 min 0 min 0 W/m 10,5 km/h (2 Bft) 97,87 %
08.11.2015 00:10 15,7 C 14,4 C 12,8 C 86 % 0 lf 1024,6 hPa 0,0 l/m 0 min 0 min 0 W/m 14,6 km/h (3 Bft) 95,74 %
08.11.2015 00:12 15,6 C 14,4 C 13,3 C 86 % 0 lf 1024,7 hPa 0,0 l/m 0 min 0 min 0 W/m 14,6 km/h (3 Bft) 93,75 %
08.11.2015 00:14 15,6 C 14,4 C 13,3 C 86 % 0 lf 1024,7 hPa 0,0 l/m 0 min 0 min 0 W/m 12,6 km/h (3 Bft) 93,48 %
08.11.2015 00:16 15,6 C 14,4 C 13,3 C 87 % 0 lf 1024,7 hPa 0,0 l/m 0 min 0 min 0 W/m 12,6 km/h (3 Bft) 93,62 %
08.11.2015 00:18 15,5 C 14,4 C 12,8 C 87 % 0 lf 1024,8 hPa 0,0 l/m 0 min 0 min 0 W/m 16,7 km/h (3 Bft) 95,74 %
08.11.2015 00:20 15,5 C 14,4 C 12,8 C 87 % 0 lf 1024,8 hPa 0,0 l/m 0 min 0 min 0 W/m 16,7 km/h (3 Bft) 95,74 %
08.11.2015 00:22 15,4 C 14,4 C 12,8 C 87 % 0 lf 1024,9 hPa 0,0 l/m 0 min 0 min 0 W/m 14,6 km/h (3 Bft) 93,62 %
08.11.2015 00:24 15,4 C 15,0 C 13,3 C 87 % 0 lf 1025,0 hPa 0,0 l/m 0 min 0 min 0 W/m 14,6 km/h (3 Bft) 95,74 %
08.11.2015 00:26 15,3 C 14,4 C 12,8 C 87 % 0 lf 1025,1 hPa 0,0 l/m 0 min 0 min 0 W/m 12,6 km/h (3 Bft) 93,48 %
08.11.2015 00:28 15,3 C 14,4 C 12,8 C 88 % 0 lf 1025,1 hPa 0,0 l/m 0 min 0 min 0 W/m 16,7 km/h (3 Bft) 93,62 %
08.11.2015 00:30 15,3 C 14,4 C 13,3 C 88 % 0 lf 1025,0 hPa 0,0 l/m 0 min 0 min 0 W/m 16,7 km/h (3 Bft) 93,62 %
08.11.2015 00:32 15,2 C 15,0 C 13,3 C 88 % 0 lf 1025,1 hPa 0,0 l/m 0 min 0 min 0 W/m 14,6 km/h (3 Bft) 95,92 %
08.11.2015 00:34 15,2 C 14,4 C 12,8 C 88 % 0 lf 1025,1 hPa 0,0 l/m 0 min 0 min 0 W/m 10,5 km/h (2 Bft) 97,83 %
08.11.2015 00:36 15,2 C 14,4 C 12,8 C 88 % 0 lf 1025,2 hPa 0,0 l/m 0 min 0 min 0 W/m 12,6 km/h (3 Bft) 95,74 %
08.11.2015 00:38 15,2 C 14,4 C 12,8 C 88 % 0 lf 1025,2 hPa 0,0 l/m 0 min 0 min 0 W/m 16,7 km/h (3 Bft) 91,49 %
08.11.2015 00:40 15,1 C 14,4 C 12,8 C 88 % 0 lf 1025,2 hPa 0,0 l/m 0 min 0 min 0 W/m 12,6 km/h (3 Bft) 93,62 %
08.11.2015 00:42 15,1 C 14,4 C 12,8 C 88 % 0 lf 1025,3 hPa 0,0 l/m 0 min 0 min 0 W/m 12,6 km/h (3 Bft) 97,87 %
08.11.2015 00:44 15,1 C 14,4 C 12,8 C 88 % 0 lf 1025,3 hPa 0,0 l/m 0 min 0 min 0 W/m 12,6 km/h (3 Bft) 91,49 %
08.11.2015 00:46 15,1 C 14,4 C 12,8 C 89 % 0 lf 1025,3 hPa 0,0 l/m 0 min 0 min 0 W/m 14,6 km/h (3 Bft) 95,65 %
08.11.2015 00:48 15,0 C 14,4 C 12,8 C 89 % 0 lf 1025,4 hPa 0,0 l/m 0 min 0 min 0 W/m 14,6 km/h (3 Bft) 95,74 %
08.11.2015 00:50 15,0 C 14,4 C 12,8 C 89 % 0 lf 1025,4 hPa 0,0 l/m 0 min 0 min 0 W/m 18,8 km/h (3 Bft) 91,49 %
08.11.2015 00:52 14,9 C 14,4 C 12,8 C 89 % 0 lf 1025,5 hPa 0,0 l/m 0 min 0 min 0 W/m 12,6 km/h (3 Bft) 93,62 %
08.11.2015 00:54 14,9 C 14,4 C 12,8 C 89 % 0 lf 1025,5 hPa 0,0 l/m 0 min 0 min 0 W/m 18,8 km/h (3 Bft) 95,74 %
08.11.2015 00:56 14,9 C 14,4 C 12,8 C 89 % 0 lf 1025,5 hPa 0,0 l/m 0 min 0 min 0 W/m 12,6 km/h (3 Bft) 95,74 %
08.11.2015 00:58 14,9 C 14,4 C 12,8 C 89 % 0 lf 1025,5 hPa 0,0 l/m 0 min 0 min 0 W/m 18,8 km/h (3 Bft) 95,65 %
08.11.2015 01:00 14,8 C 14,4 C 12,8 C 89 % 0 lf 1025,6 hPa 0,0 l/m 0 min 0 min 0 W/m 10,5 km/h (2 Bft) 95,74 %
08.11.2015 01:02 14,8 C 14,4 C 12,8 C 89 % 0 lf 1025,7 hPa 0,0 l/m 0 min 0 min 0 W/m 10,5 km/h (2 Bft) 97,87 %
08.11.2015 01:04 14,8 C 14,4 C 12,8 C 90 % 0 lf 1025,6 hPa 0,0 l/m 0 min 0 min 0 W/m 18,8 km/h (3 Bft) 95,74 %
08.11.2015 01:06 14,8 C 14,4 C 12,8 C 90 % 0 lf 1025,6 hPa 0,0 l/m 0 min 0 min 0 W/m 14,6 km/h (3 Bft) 93,62 %
08.11.2015 01:08 14,8 C 14,4 C 12,8 C 90 % 0 lf 1025,7 hPa 0,0 l/m 0 min 0 min 0 W/m 12,6 km/h (3 Bft) 93,62 %
08.11.2015 01:10 14,8 C 14,4 C 12,8 C 90 % 0 lf 1025,7 hPa 0,0 l/m 0 min 0 min 0 W/m 8,4 km/h (2 Bft) 95,65 %
08.11.2015 01:12 14,8 C 14,4 C 12,8 C 90 % 0 lf 1025,8 hPa 0,0 l/m 0 min 0 min 0 W/m 12,6 km/h (3 Bft) 97,14 %
08.11.2015 01:14 14,7 C 14,4 C 12,8 C 90 % 0 lf 1025,7 hPa 0,0 l/m 0 min 0 min 0 W/m 10,5 km/h (2 Bft) 95,74 %
08.11.2015 01:16 14,7 C 14,4 C 12,8 C 91 % 0 lf 1025,7 hPa 0,0 l/m 0 min 0 min 0 W/m 14,6 km/h (3 Bft) 93,62 %
08.11.2015 01:18 14,7 C 14,4 C 13,3 C 91 % 0 lf 1025,7 hPa 0,0 l/m 0 min 0 min 0 W/m 14,6 km/h (3 Bft) 95,74 %
08.11.2015 01:20 14,7 C 14,4 C 13,3 C 91 % 0 lf 1025,8 hPa 0,0 l/m 0 min 0 min 0 W/m 14,6 km/h (3 Bft) 91,49 %
08.11.2015 01:22 14,7 C 14,4 C 13,3 C 91 % 0 lf 1025,9 hPa 0,0 l/m 0 min 0 min 0 W/m 18,8 km/h (3 Bft) 96,23 %
08.11.2015 01:24 14,7 C 15,0 C 13,3 C 91 % 0 lf 1025,9 hPa 0,0 l/m 0 min 0 min 0 W/m 18,8 km/h (3 Bft) 95,65 %
08.11.2015 01:26 14,8 C 15,0 C 13,3 C 91 % 0 lf 1026,0 hPa 0,0 l/m 0 min 0 min 0 W/m 16,7 km/h (3 Bft) 91,49 %
08.11.2015 01:28 14,8 C 15,0 C 13,3 C 91 % 0 lf 1025,9 hPa 0,0 l/m 0 min 0 min 0 W/m 14,6 km/h (3 Bft) 95,74 %
08.11.2015 01:30 14,8 C 15,0 C 13,3 C 91 % 0 lf 1025,9 hPa 0,0 l/m 0 min 0 min 0 W/m 14,6 km/h (3 Bft) 93,62 %
08.11.2015 01:32 14,8 C 15,0 C 13,3 C 91 % 0 lf 1026,0 hPa 0,0 l/m 0 min 0 min 0 W/m 16,7 km/h (3 Bft) 98,11 %
08.11.2015 01:34 14,8 C 15,0 C 13,3 C 91 % 0 lf 1026,1 hPa 0,0 l/m 0 min 0 min 0 W/m 12,6 km/h (3 Bft) 95,65 %
08.11.2015 01:36 14,8 C 15,0 C 13,3 C 92 % 0 lf 1026,1 hPa 0,0 l/m 0 min 0 min 0 W/m 10,5 km/h (2 Bft) 93,62 %
08.11.2015 01:38 14,8 C 15,0 C 13,3 C 92 % 0 lf 1026,0 hPa 0,0 l/m 0 min 0 min 0 W/m 16,7 km/h (3 Bft) 97,87 %
08.11.2015 01:40 14,8 C 15,0 C 13,3 C 92 % 0 lf 1026,0 hPa 0,0 l/m 0 min 0 min 0 W/m 16,7 km/h (3 Bft) 93,62 %
08.11.2015 01:42 14,8 C 15,0 C 13,3 C 92 % 0 lf 1025,8 hPa 0,0 l/m 0 min 0 min 0 W/m 20,9 km/h (4 Bft) 100,00 %
08.11.2015 01:44 14,8 C 15,0 C 13,3 C 92 % 0 lf 1025,9 hPa 0,0 l/m 0 min 0 min 0 W/m 10,5 km/h (2 Bft) 100,00 %
08.11.2015 01:46 14,8 C 14,4 C 13,3 C 92 % 0 lf 1025,9 hPa 0,0 l/m 0 min 0 min 0 W/m 14,6 km/h (3 Bft) 100,00 %
08.11.2015 01:48 14,8 C 14,4 C 12,8 C 92 % 0 lf 1025,9 hPa 0,0 l/m 0 min 0 min 0 W/m 10,5 km/h (2 Bft) 100,00 %
08.11.2015 01:50 14,8 C 14,4 C 12,8 C 92 % 0 lf 1026,0 hPa 0,0 l/m 0 min 0 min 0 W/m 14,6 km/h (3 Bft) 95,74 %
08.11.2015 01:52 14,8 C 14,4 C 12,8 C 92 % 0 lf 1025,9 hPa 0,0 l/m 0 min 0 min 0 W/m 14,6 km/h (3 Bft) 100,00 %
08.11.2015 01:54 14,7 C 14,4 C 13,3 C 91 % 0 lf 1026,0 hPa 0,0 l/m 0 min 0 min 0 W/m 12,6 km/h (3 Bft) 91,49 %
08.11.2015 01:56 14,7 C 14,4 C 13,3 C 92 % 0 lf 1026,1 hPa 0,0 l/m 0 min 0 min 0 W/m 16,7 km/h (3 Bft) 97,83 %
08.11.2015 01:58 14,7 C 14,4 C 13,3 C 92 % 0 lf 1026,2 hPa 0,0 l/m 0 min 0 min 0 W/m 10,5 km/h (2 Bft) 95,74 %
08.11.2015 02:00 14,7 C 14,4 C 13,3 C 92 % 0 lf 1026,3 hPa 0,0 l/m 0 min 0 min 0 W/m 23,0 km/h (4 Bft) 93,62 %
08.11.2015 02:02 14,7 C 15,0 C 13,3 C 92 % 0 lf 1026,3 hPa 0,0 l/m 0 min 0 min 0 W/m 10,5 km/h (2 Bft) 95,74 %
08.11.2015 02:04 14,7 C 14,4 C 13,3 C 92 % 0 lf 1026,3 hPa 0,0 l/m 0 min 0 min 0 W/m 14,6 km/h (3 Bft) 100,00 %
08.11.2015 02:06 14,7 C 15,0 C 13,3 C 92 % 0 lf 1026,3 hPa 0,0 l/m 0 min 0 min 0 W/m 18,8 km/h (3 Bft) 97,87 %
08.11.2015 02:08 14,7 C 15,0 C 13,3 C 92 % 0 lf 1026,3 hPa 0,0 l/m 0 min 0 min 0 W/m 18,8 km/h (3 Bft) 100,00 %
08.11.2015 02:10 14,7 C 15,0 C 13,3 C 92 % 0 lf 1026,4 hPa 0,0 l/m 0 min 0 min 0 W/m 14,6 km/h (3 Bft) 100,00 %
08.11.2015 02:12 14,7 C 14,4 C 13,3 C 92 % 0 lf 1026,4 hPa 0,0 l/m 0 min 0 min 0 W/m 18,8 km/h (3 Bft) 97,87 %
08.11.2015 02:14 14,7 C 14,4 C 13,3 C 92 % 0 lf 1026,4 hPa 0,0 l/m 0 min 0 min 0 W/m 20,9 km/h (4 Bft) 100,00 %
08.11.2015 02:16 14,7 C 14,4 C 13,3 C 92 % 0 lf 1026,4 hPa 0,0 l/m 0 min 0 min 0 W/m 16,7 km/h (3 Bft) 95,74 %
08.11.2015 02:18 14,7 C 14,4 C 13,3 C 92 % 0 lf 1026,4 hPa 0,0 l/m 0 min 0 min 0 W/m 12,6 km/h (3 Bft) 100,00 %
08.11.2015 02:20 14,7 C 14,4 C 12,8 C 92 % 0 lf 1026,4 hPa 0,0 l/m 0 min 0 min 0 W/m 14,6 km/h (3 Bft) 100,00 %
08.11.2015 02:22 14,7 C 14,4 C 12,8 C 92 % 0 lf 1026,4 hPa 0,0 l/m 0 min 0 min 0 W/m 12,6 km/h (3 Bft) 100,00 %
08.11.2015 02:24 14,6 C 14,4 C 12,8 C 92 % 0 lf 1026,4 hPa 0,0 l/m 0 min 0 min 0 W/m 10,5 km/h (2 Bft) 100,00 %
08.11.2015 02:26 14,6 C 14,4 C 12,8 C 92 % 0 lf 1026,4 hPa 0,0 l/m 0 min 0 min 0 W/m 12,6 km/h (3 Bft) 100,00 %
08.11.2015 02:28 14,6 C 13,9 C 12,8 C 92 % 0 lf 1026,4 hPa 0,0 l/m 0 min 0 min 0 W/m 8,4 km/h (2 Bft) 95,74 %
08.11.2015 02:30 14,6 C 13,9 C 12,8 C 92 % 0 lf 1026,5 hPa 0,0 l/m 0 min 0 min 0 W/m 12,6 km/h (3 Bft) 97,87 %
08.11.2015 02:32 14,6 C 13,9 C 12,8 C 92 % 0 lf 1026,7 hPa 0,0 l/m 0 min 0 min 0 W/m 12,6 km/h (3 Bft) 97,83 %
08.11.2015 02:34 14,5 C 13,9 C 12,8 C 92 % 0 lf 1026,5 hPa 0,0 l/m 0 min 0 min 0 W/m 18,8 km/h (3 Bft) 91,49 %
08.11.2015 02:36 14,5 C 13,9 C 12,8 C 92 % 0 lf 1026,5 hPa 0,0 l/m 0 min 0 min 0 W/m 18,8 km/h (3 Bft) 95,74 %
08.11.2015 02:38 14,5 C 13,9 C 12,8 C 92 % 0 lf 1026,7 hPa 0,0 l/m 0 min 0 min 0 W/m 8,4 km/h (2 Bft) 95,74 %
08.11.2015 02:40 14,4 C 13,9 C 12,8 C 92 % 0 lf 1026,7 hPa 0,0 l/m 0 min 0 min 0 W/m 16,7 km/h (3 Bft) 95,74 %
08.11.2015 02:42 14,4 C 13,9 C 12,8 C 92 % 0 lf 1026,8 hPa 0,0 l/m 0 min 0 min 0 W/m 12,6 km/h (3 Bft) 93,62 %
08.11.2015 02:44 14,4 C 13,9 C 12,8 C 92 % 0 lf 1026,7 hPa 0,0 l/m 0 min 0 min 0 W/m 10,5 km/h (2 Bft) 97,83 %
08.11.2015 02:46 14,4 C 13,9 C 12,2 C 92 % 0 lf 1026,7 hPa 0,0 l/m 0 min 0 min 0 W/m 10,5 km/h (2 Bft) 95,74 %
08.11.2015 02:48 14,3 C 13,9 C 12,2 C 91 % 0 lf 1026,9 hPa 0,0 l/m 0 min 0 min 0 W/m 14,6 km/h (3 Bft) 91,49 %
08.11.2015 02:50 14,3 C 13,9 C 12,2 C 92 % 1 lf 1026,8 hPa 0,0 l/m 0 min 0 min 0 W/m 8,4 km/h (2 Bft) 97,87 %
08.11.2015 02:52 14,3 C 13,9 C 12,2 C 92 % 0 lf 1026,8 hPa 0,0 l/m 0 min 0 min 0 W/m 12,6 km/h (3 Bft) 91,43 %
08.11.2015 02:54 14,3 C 13,9 C 12,2 C 92 % 0 lf 1026,8 hPa 0,0 l/m 0 min 0 min 0 W/m 12,6 km/h (3 Bft) 97,87 %
08.11.2015 02:56 14,2 C 13,9 C 12,2 C 92 % 0 lf 1026,8 hPa 0,0 l/m 0 min 0 min 0 W/m 18,8 km/h (3 Bft) 97,87 %
08.11.2015 02:58 14,2 C 13,9 C 12,2 C 92 % 0 lf 1026,9 hPa 0,0 l/m 0 min 0 min 0 W/m 16,7 km/h (3 Bft) 93,48 %
08.11.2015 03:00 14,2 C 13,9 C 12,2 C 92 % 0 lf 1027,0 hPa 0,0 l/m 0 min 0 min 0 W/m 12,6 km/h (3 Bft) 95,74 %
08.11.2015 03:02 14,2 C 13,9 C 12,8 C 92 % 0 lf 1026,9 hPa 0,0 l/m 0 min 0 min 0 W/m 18,8 km/h (3 Bft) 94,92 %
08.11.2015 03:04 14,2 C 13,9 C 12,8 C 92 % 0 lf 1026,9 hPa 0,0 l/m 0 min 0 min 0 W/m 14,6 km/h (3 Bft) 94,29 %
08.11.2015 03:06 14,2 C 13,9 C 12,8 C 92 % 0 lf 1026,9 hPa 0,0 l/m 0 min 0 min 0 W/m 16,7 km/h (3 Bft) 89,36 %
08.11.2015 03:08 14,2 C 13,9 C 12,8 C 92 % 0 lf 1026,9 hPa 0,0 l/m 0 min 0 min 0 W/m 16,7 km/h (3 Bft) 93,10 %
08.11.2015 03:10 14,2 C 13,9 C 12,8 C 92 % 0 lf 1026,9 hPa 0,0 l/m 0 min 0 min 0 W/m 16,7 km/h (3 Bft) 91,43 %
08.11.2015 03:12 14,2 C 13,9 C 12,8 C 92 % 0 lf 1026,8 hPa 0,0 l/m 0 min 0 min 0 W/m 18,8 km/h (3 Bft) 90,57 %
08.11.2015 03:14 14,2 C 13,9 C 12,2 C 92 % 0 lf 1026,8 hPa 0,0 l/m 0 min 0 min 0 W/m 14,6 km/h (3 Bft) 93,62 %
08.11.2015 03:16 14,2 C 13,9 C 12,2 C 92 % 0 lf 1026,8 hPa 0,0 l/m 0 min 0 min 0 W/m 14,6 km/h (3 Bft) 93,62 %
08.11.2015 03:18 14,2 C 13,9 C 12,2 C 92 % 0 lf 1026,8 hPa 0,0 l/m 0 min 0 min 0 W/m 14,6 km/h (3 Bft) 91,49 %
08.11.2015 03:20 14,1 C 13,9 C 12,2 C 92 % 0 lf 1026,7 hPa 0,0 l/m 0 min 0 min 0 W/m 12,6 km/h (3 Bft) 93,62 %
08.11.2015 03:22 14,1 C 13,9 C 12,2 C 92 % 0 lf 1026,7 hPa 0,0 l/m 0 min 0 min 0 W/m 14,6 km/h (3 Bft) 91,84 %
08.11.2015 03:24 14,1 C 13,3 C 12,2 C 92 % 1 lf 1026,7 hPa 0,0 l/m 0 min 0 min 0 W/m 10,5 km/h (2 Bft) 91,49 %
08.11.2015 03:26 14,0 C 13,3 C 12,2 C 92 % 0 lf 1026,7 hPa 0,0 l/m 0 min 0 min 0 W/m 14,6 km/h (3 Bft) 91,49 %
08.11.2015 03:28 14,0 C 13,3 C 12,2 C 92 % 1 lf 1026,8 hPa 0,0 l/m 0 min 0 min 0 W/m 6,3 km/h (2 Bft) 95,74 %
08.11.2015 03:30 14,0 C 13,3 C 11,7 C 92 % 1 lf 1026,8 hPa 0,0 l/m 0 min 0 min 0 W/m 10,5 km/h (2 Bft) 93,62 %
08.11.2015 03:32 13,9 C 13,3 C 12,2 C 92 % 1 lf 1026,8 hPa 0,0 l/m 0 min 0 min 0 W/m 12,6 km/h (3 Bft) 95,92 %
08.11.2015 03:34 13,9 C 13,3 C 12,2 C 92 % 1 lf 1026,7 hPa 0,0 l/m 0 min 0 min 0 W/m 10,5 km/h (2 Bft) 97,87 %
08.11.2015 03:36 13,9 C 13,3 C 11,7 C 92 % 1 lf 1026,8 hPa 0,0 l/m 0 min 0 min 0 W/m 10,5 km/h (2 Bft) 93,62 %
08.11.2015 03:38 13,9 C 13,3 C 11,7 C 92 % 1 lf 1026,8 hPa 0,0 l/m 0 min 0 min 0 W/m 8,4 km/h (2 Bft) 97,87 %
08.11.2015 03:40 13,8 C 12,8 C 11,7 C 92 % 1 lf 1026,9 hPa 0,0 l/m 0 min 0 min 0 W/m 10,5 km/h (2 Bft) 97,87 %
08.11.2015 03:42 13,8 C 13,3 C 11,7 C 92 % 1 lf 1026,9 hPa 0,0 l/m 0 min 0 min 0 W/m 8,4 km/h (2 Bft) 95,65 %
08.11.2015 03:44 13,8 C 12,8 C 11,7 C 92 % 1 lf 1026,9 hPa 0,0 l/m 0 min 0 min 0 W/m 6,3 km/h (2 Bft) 95,74 %
08.11.2015 03:46 13,8 C 12,8 C 11,7 C 92 % 1 lf 1026,9 hPa 0,0 l/m 0 min 0 min 0 W/m 8,4 km/h (2 Bft) 95,74 %
08.11.2015 03:48 13,7 C 12,8 C 11,7 C 92 % 1 lf 1026,9 hPa 0,0 l/m 0 min 0 min 0 W/m 8,4 km/h (2 Bft) 95,74 %
08.11.2015 03:50 13,7 C 12,8 C 11,7 C 92 % 1 lf 1027,0 hPa 0,0 l/m 0 min 0 min 0 W/m 10,5 km/h (2 Bft) 97,87 %
08.11.2015 03:52 13,7 C 12,8 C 11,7 C 92 % 1 lf 1027,0 hPa 0,0 l/m 0 min 0 min 0 W/m 8,4 km/h (2 Bft) 100,00 %
08.11.2015 03:54 13,7 C 12,8 C 11,7 C 92 % 1 lf 1027,0 hPa 0,0 l/m 0 min 0 min 0 W/m 10,5 km/h (2 Bft) 100,00 %
08.11.2015 03:56 13,6 C 12,8 C 11,7 C 92 % 1 lf 1027,0 hPa 0,0 l/m 0 min 0 min 0 W/m 10,5 km/h (2 Bft) 100,00 %
08.11.2015 03:58 13,6 C 12,8 C 11,7 C 92 % 1 lf 1026,9 hPa 0,0 l/m 0 min 0 min 0 W/m 8,4 km/h (2 Bft) 93,62 %
08.11.2015 04:00 13,6 C 12,8 C 11,7 C 92 % 1 lf 1027,0 hPa 0,0 l/m 0 min 0 min 0 W/m 10,5 km/h (2 Bft) 100,00 %
08.11.2015 04:05 13,5 C 12,8 C 11,7 C 92 % 1 lf 1027,0 hPa 0,0 l/m 0 min 0 min 0 W/m 6,3 km/h (2 Bft) 98,53 %
08.11.2015 04:06 13,5 C 12,8 C 11,1 C 93 % 1 lf 1027,0 hPa 0,0 l/m 0 min 0 min 0 W/m 6,3 km/h (2 Bft) 100,00 %
08.11.2015 04:08 13,5 C 12,8 C 11,1 C 93 % 1 lf 1027,0 hPa 0,0 l/m 0 min 0 min 0 W/m 6,3 km/h (2 Bft) 97,87 %
08.11.2015 04:10 13,4 C 12,2 C 11,1 C 93 % 2 lf 1027,0 hPa 0,0 l/m 0 min 0 min 0 W/m 8,4 km/h (2 Bft) 100,00 %
08.11.2015 04:12 13,4 C 12,2 C 11,1 C 93 % 2 lf 1027,0 hPa 0,0 l/m 0 min 0 min 0 W/m 6,3 km/h (2 Bft) 97,87 %
08.11.2015 04:14 13,4 C 12,2 C 11,1 C 93 % 2 lf 1027,0 hPa 0,0 l/m 0 min 0 min 0 W/m 6,3 km/h (2 Bft) 100,00 %
08.11.2015 04:16 13,4 C 12,2 C 11,1 C 92 % 2 lf 1027,0 hPa 0,0 l/m 0 min 0 min 0 W/m 6,3 km/h (2 Bft) 100,00 %
08.11.2015 04:18 13,3 C 12,2 C 11,1 C 92 % 2 lf 1027,0 hPa 0,0 l/m 0 min 0 min 0 W/m 8,4 km/h (2 Bft) 100,00 %
08.11.2015 04:20 13,3 C 12,2 C 11,1 C 92 % 2 lf 1027,0 hPa 0,0 l/m 0 min 0 min 0 W/m 8,4 km/h (2 Bft) 100,00 %
08.11.2015 04:22 13,3 C 12,2 C 11,1 C 92 % 2 lf 1027,1 hPa 0,0 l/m 0 min 0 min 0 W/m 6,3 km/h (2 Bft) 95,74 %
08.11.2015 04:24 13,3 C 12,2 C 11,1 C 92 % 2 lf 1027,2 hPa 0,0 l/m 0 min 0 min 0 W/m 8,4 km/h (2 Bft) 97,87 %
08.11.2015 04:26 13,2 C 12,2 C 11,1 C 92 % 2 lf 1027,2 hPa 0,0 l/m 0 min 0 min 0 W/m 6,3 km/h (2 Bft) 93,62 %
08.11.2015 04:28 13,2 C 12,2 C 10,6 C 92 % 2 lf 1027,3 hPa 0,0 l/m 0 min 0 min 0 W/m 6,3 km/h (2 Bft) 91,30 %
08.11.2015 04:30 13,2 C 12,2 C 10,6 C 92 % 2 lf 1027,3 hPa 0,0 l/m 0 min 0 min 0 W/m 6,3 km/h (2 Bft) 95,74 %
08.11.2015 04:32 13,1 C 12,2 C 10,6 C 92 % 2 lf 1027,3 hPa 0,0 l/m 0 min 0 min 0 W/m 8,4 km/h (2 Bft) 97,87 %
08.11.2015 04:34 13,1 C 12,2 C 10,6 C 93 % 2 lf 1027,3 hPa 0,0 l/m 0 min 0 min 0 W/m 8,4 km/h (2 Bft) 93,62 %
08.11.2015 04:36 13,1 C 12,2 C 10,6 C 93 % 2 lf 1027,3 hPa 0,0 l/m 0 min 0 min 0 W/m 12,6 km/h (3 Bft) 93,62 %
08.11.2015 04:38 13,1 C 12,2 C 10,6 C 93 % 3 lf 1027,3 hPa 0,0 l/m 0 min 0 min 0 W/m 10,5 km/h (2 Bft) 97,87 %
08.11.2015 04:40 13,0 C 12,2 C 10,6 C 93 % 3 lf 1027,4 hPa 0,0 l/m 0 min 0 min 0 W/m 8,4 km/h (2 Bft) 95,65 %
08.11.2015 04:42 12,9 C 12,2 C 10,6 C 93 % 3 lf 1027,5 hPa 0,0 l/m 0 min 0 min 0 W/m 8,4 km/h (2 Bft) 95,74 %
08.11.2015 04:44 12,9 C 12,2 C 10,6 C 93 % 3 lf 1027,6 hPa 0,0 l/m 0 min 0 min 0 W/m 8,4 km/h (2 Bft) 93,62 %
08.11.2015 04:46 12,9 C 12,2 C 10,6 C 93 % 3 lf 1027,6 hPa 0,0 l/m 0 min 0 min 0 W/m 6,3 km/h (2 Bft) 93,62 %
08.11.2015 04:48 12,9 C 12,2 C 10,6 C 93 % 3 lf 1027,6 hPa 0,0 l/m 0 min 0 min 0 W/m 10,5 km/h (2 Bft) 95,74 %
08.11.2015 04:50 12,8 C 11,7 C 10,6 C 93 % 3 lf 1027,7 hPa 0,0 l/m 0 min 0 min 0 W/m 6,3 km/h (2 Bft) 97,87 %
08.11.2015 04:52 12,8 C 11,7 C 10,6 C 93 % 3 lf 1027,6 hPa 0,0 l/m 0 min 0 min 0 W/m 6,3 km/h (2 Bft) 97,14 %
08.11.2015 04:54 12,8 C 11,7 C 10,0 C 93 % 4 lf 1027,6 hPa 0,0 l/m 0 min 0 min 0 W/m 6,3 km/h (2 Bft) 97,83 %
08.11.2015 04:56 12,8 C 11,7 C 10,0 C 93 % 4 lf 1027,7 hPa 0,0 l/m 0 min 0 min 0 W/m 8,4 km/h (2 Bft) 95,74 %
08.11.2015 04:58 12,7 C 11,7 C 10,0 C 93 % 4 lf 1027,6 hPa 0,0 l/m 0 min 0 min 0 W/m 8,4 km/h (2 Bft) 89,36 %
08.11.2015 05:00 12,7 C 11,7 C 10,0 C 93 % 4 lf 1027,6 hPa 0,0 l/m 0 min 0 min 0 W/m 10,5 km/h (2 Bft) 95,74 %
08.11.2015 05:02 12,7 C 11,7 C 10,0 C 93 % 5 lf 1027,7 hPa 0,0 l/m 0 min 0 min 0 W/m 8,4 km/h (2 Bft) 96,30 %
08.11.2015 05:04 12,6 C 11,7 C 10,0 C 93 % 5 lf 1027,7 hPa 0,0 l/m 0 min 0 min 0 W/m 10,5 km/h (2 Bft) 93,62 %
08.11.2015 05:06 12,6 C 11,7 C 10,0 C 93 % 6 lf 1027,6 hPa 0,0 l/m 0 min 0 min 0 W/m 8,4 km/h (2 Bft) 95,74 %
08.11.2015 05:08 12,6 C 11,1 C 10,0 C 93 % 7 lf 1027,6 hPa 0,0 l/m 0 min 0 min 0 W/m 6,3 km/h (2 Bft) 93,48 %
08.11.2015 05:10 12,5 C 11,1 C 10,0 C 93 % 8 lf 1027,7 hPa 0,0 l/m 0 min 0 min 0 W/m 6,3 km/h (2 Bft) 91,49 %
08.11.2015 05:12 12,5 C 11,1 C 10,0 C 93 % 9 lf 1027,7 hPa 0,0 l/m 0 min 0 min 0 W/m 6,3 km/h (2 Bft) 93,75 %
08.11.2015 05:14 12,4 C 11,1 C 10,0 C 93 % 10 lf 1027,7 hPa 0,0 l/m 0 min 0 min 0 W/m 6,3 km/h (2 Bft) 95,74 %
08.11.2015 05:16 12,4 C 11,1 C 10,0 C 93 % 10 lf 1027,8 hPa 0,0 l/m 0 min 0 min 0 W/m 4,2 km/h (1 Bft) 91,49 %
08.11.2015 05:18 12,4 C 11,1 C 9,4 C 93 % 11 lf 1027,9 hPa 0,0 l/m 0 min 0 min 0 W/m 6,3 km/h (2 Bft) 95,74 %
08.11.2015 05:20 12,3 C 11,1 C 9,4 C 93 % 12 lf 1027,9 hPa 0,0 l/m 0 min 0 min 0 W/m 4,2 km/h (1 Bft) 95,65 %
08.11.2015 05:22 12,3 C 11,1 C 9,4 C 93 % 12 lf 1027,9 hPa 0,0 l/m 0 min 0 min 0 W/m 4,2 km/h (1 Bft) 95,83 %
08.11.2015 05:24 12,3 C 10,6 C 9,4 C 93 % 12 lf 1028,0 hPa 0,0 l/m 0 min 0 min 0 W/m 4,2 km/h (1 Bft) 95,74 %
08.11.2015 05:26 12,2 C 10,6 C 9,4 C 93 % 13 lf 1028,0 hPa 0,0 l/m 0 min 0 min 0 W/m 2,1 km/h (1 Bft) 97,87 %
08.11.2015 05:28 12,2 C 10,6 C 9,4 C 93 % 14 lf 1027,9 hPa 0,0 l/m 0 min 0 min 0 W/m 0,0 km/h (0 Bft) 91,49 %
08.11.2015 05:30 12,1 C 10,0 C 9,4 C 93 % 14 lf 1027,9 hPa 0,0 l/m 0 min 0 min 0 W/m 2,1 km/h (1 Bft) 97,83 %
08.11.2015 05:32 12,1 C 10,6 C 8,9 C 93 % 14 lf 1027,9 hPa 0,0 l/m 0 min 0 min 0 W/m 4,2 km/h (1 Bft) 94,00 %
08.11.2015 05:34 12,0 C 10,6 C 8,9 C 93 % 14 lf 1027,9 hPa 0,0 l/m 0 min 0 min 0 W/m 4,2 km/h (1 Bft) 95,74 %
08.11.2015 05:36 11,9 C 10,6 C 8,9 C 93 % 15 lf 1027,9 hPa 0,0 l/m 0 min 0 min 0 W/m 6,3 km/h (2 Bft) 97,87 %
08.11.2015 05:38 11,9 C 10,6 C 8,9 C 93 % 15 lf 1027,9 hPa 0,0 l/m 0 min 0 min 0 W/m 6,3 km/h (2 Bft) 97,83 %
08.11.2015 05:40 11,9 C 10,6 C 8,9 C 93 % 15 lf 1027,9 hPa 0,0 l/m 0 min 0 min 0 W/m 4,2 km/h (1 Bft) 93,62 %
08.11.2015 05:42 11,8 C 10,6 C 8,9 C 93 % 15 lf 1027,9 hPa 0,0 l/m 0 min 0 min 0 W/m 6,3 km/h (2 Bft) 95,74 %
08.11.2015 05:44 11,8 C 10,6 C 8,9 C 93 % 15 lf 1027,9 hPa 0,0 l/m 0 min 0 min 0 W/m 4,2 km/h (1 Bft) 93,62 %
08.11.2015 05:46 11,8 C 10,6 C 8,9 C 93 % 15 lf 1027,9 hPa 0,0 l/m 0 min 0 min 0 W/m 6,3 km/h (2 Bft) 95,74 %
08.11.2015 05:48 11,7 C 10,6 C 8,9 C 93 % 15 lf 1027,9 hPa 0,0 l/m 0 min 0 min 0 W/m 6,3 km/h (2 Bft) 97,87 %
08.11.2015 05:50 11,7 C 10,6 C 8,9 C 93 % 15 lf 1027,9 hPa 0,0 l/m 0 min 0 min 0 W/m 6,3 km/h (2 Bft) 93,48 %
08.11.2015 05:52 11,6 C 10,6 C 8,9 C 93 % 15 lf 1027,9 hPa 0,0 l/m 0 min 0 min 0 W/m 4,2 km/h (1 Bft) 95,74 %
08.11.2015 05:54 11,6 C 10,0 C 8,9 C 93 % 15 lf 1027,8 hPa 0,0 l/m 0 min 0 min 0 W/m 2,1 km/h (1 Bft) 93,62 %
08.11.2015 05:56 11,6 C 10,0 C 8,9 C 93 % 15 lf 1027,7 hPa 0,0 l/m 0 min 0 min 0 W/m 2,1 km/h (1 Bft) 93,62 %
08.11.2015 05:58 11,5 C 10,0 C 8,9 C 93 % 15 lf 1027,8 hPa 0,0 l/m 0 min 0 min 0 W/m 0,0 km/h (0 Bft) 93,62 %
08.11.2015 06:00 11,4 C 10,0 C 8,9 C 93 % 15 lf 1027,7 hPa 0,0 l/m 0 min 0 min 0 W/m 2,1 km/h (1 Bft) 93,62 %
08.11.2015 06:02 11,4 C 10,0 C 8,9 C 93 % 15 lf 1027,7 hPa 0,0 l/m 0 min 0 min 0 W/m 2,1 km/h (1 Bft) 95,65 %
08.11.2015 06:04 11,3 C 9,4 C 8,9 C 93 % 15 lf 1027,7 hPa 0,0 l/m 0 min 0 min 0 W/m 0,0 km/h (0 Bft) 95,74 %
08.11.2015 06:06 11,3 C 10,0 C 8,9 C 93 % 15 lf 1027,6 hPa 0,0 l/m 0 min 0 min 0 W/m 0,0 km/h (0 Bft) 95,74 %
08.11.2015 06:08 11,3 C 10,0 C 8,3 C 93 % 15 lf 1027,6 hPa 0,0 l/m 0 min 0 min 0 W/m 2,1 km/h (1 Bft) 93,62 %
08.11.2015 06:10 11,2 C 10,0 C 8,3 C 93 % 15 lf 1027,5 hPa 0,0 l/m 0 min 0 min 0 W/m 4,2 km/h (1 Bft) 95,74 %
08.11.2015 06:12 11,2 C 10,0 C 8,3 C 93 % 15 lf 1027,6 hPa 0,0 l/m 0 min 0 min 0 W/m 6,3 km/h (2 Bft) 95,74 %
08.11.2015 06:14 11,2 C 10,0 C 8,3 C 93 % 15 lf 1027,6 hPa 0,0 l/m 0 min 0 min 0 W/m 4,2 km/h (1 Bft) 93,48 %
08.11.2015 06:16 11,1 C 10,0 C 8,3 C 93 % 15 lf 1027,6 hPa 0,0 l/m 0 min 0 min 0 W/m 4,2 km/h (1 Bft) 93,62 %
08.11.2015 06:18 11,1 C 10,0 C 8,3 C 93 % 15 lf 1027,7 hPa 0,0 l/m 0 min 0 min 0 W/m 4,2 km/h (1 Bft) 97,87 %
08.11.2015 06:20 11,1 C 10,0 C 8,3 C 93 % 15 lf 1027,7 hPa 0,0 l/m 0 min 0 min 0 W/m 6,3 km/h (2 Bft) 95,74 %
08.11.2015 06:22 11,0 C 10,0 C 8,3 C 93 % 15 lf 1027,7 hPa 0,0 l/m 0 min 0 min 0 W/m 4,2 km/h (1 Bft) 95,74 %
08.11.2015 06:24 11,0 C 10,0 C 8,3 C 93 % 15 lf 1027,7 hPa 0,0 l/m 0 min 0 min 0 W/m 2,1 km/h (1 Bft) 95,74 %
08.11.2015 06:26 10,9 C 10,0 C 8,3 C 93 % 15 lf 1027,7 hPa 0,0 l/m 0 min 0 min 0 W/m 4,2 km/h (1 Bft) 97,83 %
08.11.2015 06:28 10,9 C 9,4 C 8,3 C 93 % 15 lf 1027,7 hPa 0,0 l/m 0 min 0 min 0 W/m 6,3 km/h (2 Bft) 97,87 %
08.11.2015 06:30 10,9 C 9,4 C 8,3 C 93 % 15 lf 1027,6 hPa 0,0 l/m 0 min 0 min 0 W/m 4,2 km/h (1 Bft) 91,49 %
08.11.2015 06:32 10,8 C 9,4 C 8,3 C 93 % 15 lf 1027,6 hPa 0,0 l/m 0 min 0 min 0 W/m 4,2 km/h (1 Bft) 97,87 %
08.11.2015 06:34 10,8 C 9,4 C 8,3 C 93 % 15 lf 1027,7 hPa 0,0 l/m 0 min 0 min 0 W/m 2,1 km/h (1 Bft) 97,87 %
08.11.2015 06:36 10,7 C 9,4 C 8,3 C 93 % 15 lf 1027,7 hPa 0,0 l/m 0 min 0 min 0 W/m 2,1 km/h (1 Bft) 95,74 %
08.11.2015 06:38 10,7 C 9,4 C 8,3 C 93 % 15 lf 1027,7 hPa 0,0 l/m 0 min 0 min 0 W/m 2,1 km/h (1 Bft) 97,83 %
08.11.2015 06:40 10,7 C 10,0 C 8,3 C 93 % 15 lf 1027,7 hPa 0,0 l/m 0 min 0 min 0 W/m 2,1 km/h (1 Bft) 100,00 %
08.11.2015 06:42 10,7 C 9,4 C 8,3 C 93 % 15 lf 1027,8 hPa 0,0 l/m 0 min 0 min 0 W/m 2,1 km/h (1 Bft) 97,87 %
08.11.2015 06:44 10,6 C 9,4 C 8,3 C 93 % 15 lf 1027,8 hPa 0,0 l/m 0 min 0 min 0 W/m 2,1 km/h (1 Bft) 100,00 %
08.11.2015 06:46 10,6 C 9,4 C 8,3 C 93 % 15 lf 1027,7 hPa 0,0 l/m 0 min 0 min 0 W/m 4,2 km/h (1 Bft) 97,87 %
08.11.2015 06:48 10,6 C 9,4 C 7,8 C 93 % 15 lf 1027,6 hPa 0,0 l/m 0 min 0 min 0 W/m 4,2 km/h (1 Bft) 100,00 %
08.11.2015 06:50 10,5 C 9,4 C 7,8 C 93 % 15 lf 1027,6 hPa 0,0 l/m 0 min 0 min 0 W/m 4,2 km/h (1 Bft) 97,87 %
08.11.2015 06:52 10,4 C 9,4 C 7,8 C 93 % 15 lf 1027,6 hPa 0,0 l/m 0 min 0 min 0 W/m 4,2 km/h (1 Bft) 97,14 %
08.11.2015 06:54 10,4 C 8,9 C 7,8 C 93 % 15 lf 1027,7 hPa 0,0 l/m 0 min 0 min 0 W/m 2,1 km/h (1 Bft) 97,87 %
08.11.2015 06:56 10,4 C 9,4 C 7,8 C 93 % 15 lf 1027,7 hPa 0,0 l/m 0 min 0 min 0 W/m 4,2 km/h (1 Bft) 97,87 %
08.11.2015 06:58 10,3 C 9,4 C 7,8 C 93 % 15 lf 1027,6 hPa 0,0 l/m 0 min 0 min 0 W/m 4,2 km/h (1 Bft) 95,74 %
08.11.2015 07:00 10,3 C 9,4 C 7,8 C 93 % 15 lf 1027,5 hPa 0,0 l/m 0 min 0 min 0 W/m 2,1 km/h (1 Bft) 93,62 %
08.11.2015 07:02 10,3 C 9,4 C 7,8 C 93 % 15 lf 1027,4 hPa 0,0 l/m 0 min 0 min 0 W/m 4,2 km/h (1 Bft) 98,15 %
08.11.2015 07:04 10,3 C 9,4 C 7,8 C 94 % 15 lf 1027,5 hPa 0,0 l/m 0 min 0 min 0 W/m 4,2 km/h (1 Bft) 95,65 %
08.11.2015 07:06 10,2 C 9,4 C 7,8 C 94 % 15 lf 1027,6 hPa 0,0 l/m 0 min 0 min 0 W/m 2,1 km/h (1 Bft) 93,62 %
08.11.2015 07:08 10,2 C 8,9 C 7,8 C 94 % 15 lf 1027,6 hPa 0,0 l/m 0 min 0 min 0 W/m 2,1 km/h (1 Bft) 97,87 %
08.11.2015 07:10 10,2 C 8,3 C 7,8 C 94 % 15 lf 1027,5 hPa 0,0 l/m 0 min 0 min 0 W/m 2,1 km/h (1 Bft) 93,62 %
08.11.2015 07:12 10,2 C 8,9 C 7,8 C 94 % 15 lf 1027,6 hPa 0,0 l/m 0 min 0 min 0 W/m 2,1 km/h (1 Bft) 97,87 %
08.11.2015 07:14 10,1 C 8,9 C 7,8 C 94 % 15 lf 1027,6 hPa 0,0 l/m 0 min 0 min 0 W/m 4,2 km/h (1 Bft) 97,87 %
08.11.2015 07:16 10,1 C 8,9 C 7,8 C 93 % 15 lf 1027,7 hPa 0,0 l/m 0 min 0 min 0 W/m 2,1 km/h (1 Bft) 93,48 %
08.11.2015 07:18 10,1 C 8,3 C 7,8 C 93 % 15 lf 1027,7 hPa 0,0 l/m 0 min 0 min 0 W/m 0,0 km/h (0 Bft) 91,49 %
08.11.2015 07:20 10,0 C 8,9 C 7,8 C 93 % 15 lf 1027,8 hPa 0,0 l/m 0 min 0 min 0 W/m 0,0 km/h (0 Bft) 95,74 %
08.11.2015 07:22 10,0 C 8,9 C 7,8 C 93 % 15 lf 1027,8 hPa 0,0 l/m 0 min 0 min 0 W/m 2,1 km/h (1 Bft) 100,00 %
08.11.2015 07:24 9,9 C 8,9 C 7,8 C 94 % 15 lf 1027,9 hPa 0,0 l/m 0 min 0 min 0 W/m 4,2 km/h (1 Bft) 97,87 %
08.11.2015 07:26 9,9 C 8,9 C 7,8 C 94 % 15 lf 1027,9 hPa 0,0 l/m 0 min 0 min 0 W/m 2,1 km/h (1 Bft) 95,74 %
08.11.2015 07:28 9,9 C 8,9 C 7,8 C 94 % 15 lf 1027,9 hPa 0,0 l/m 0 min 0 min 0 W/m 2,1 km/h (1 Bft) 100,00 %
08.11.2015 07:30 9,9 C 9,4 C 7,8 C 94 % 15 lf 1027,8 hPa 0,0 l/m 0 min 0 min 0 W/m 2,1 km/h (1 Bft) 100,00 %
08.11.2015 07:32 9,9 C 9,4 C 7,8 C 94 % 15 lf 1027,8 hPa 0,0 l/m 0 min 0 min 2 W/m 0,0 km/h (0 Bft) 97,87 %
08.11.2015 07:34 9,8 C 9,4 C 7,8 C 94 % 15 lf 1027,8 hPa 0,0 l/m 0 min 0 min 5 W/m 2,1 km/h (1 Bft) 97,87 %
08.11.2015 07:36 9,8 C 9,4 C 8,3 C 94 % 15 lf 1027,8 hPa 0,0 l/m 0 min 0 min 5 W/m 4,2 km/h (1 Bft) 100,00 %
08.11.2015 07:38 9,8 C 9,4 C 8,3 C 94 % 15 lf 1027,8 hPa 0,0 l/m 0 min 0 min 5 W/m 4,2 km/h (1 Bft) 97,87 %
08.11.2015 07:40 9,8 C 9,4 C 8,3 C 94 % 15 lf 1027,8 hPa 0,0 l/m 0 min 0 min 0 W/m 4,2 km/h (1 Bft) 100,00 %
08.11.2015 07:42 9,8 C 9,4 C 8,3 C 94 % 15 lf 1027,8 hPa 0,0 l/m 0 min 0 min 0 W/m 2,1 km/h (1 Bft) 97,87 %
08.11.2015 07:44 9,7 C 9,4 C 8,3 C 94 % 15 lf 1027,8 hPa 0,0 l/m 0 min 0 min 5 W/m 4,2 km/h (1 Bft) 97,87 %
08.11.2015 07:46 9,7 C 9,4 C 8,3 C 94 % 15 lf 1027,8 hPa 0,0 l/m 0 min 0 min 5 W/m 6,3 km/h (2 Bft) 100,00 %
08.11.2015 07:48 9,7 C 9,4 C 8,3 C 94 % 15 lf 1027,8 hPa 0,0 l/m 0 min 0 min 6 W/m 6,3 km/h (2 Bft) 95,74 %
08.11.2015 07:50 9,7 C 9,4 C 8,9 C 94 % 15 lf 1027,9 hPa 0,0 l/m 0 min 0 min 7 W/m 4,2 km/h (1 Bft) 100,00 %
08.11.2015 07:52 9,7 C 10,0 C 8,9 C 94 % 15 lf 1027,9 hPa 0,0 l/m 0 min 0 min 7 W/m 2,1 km/h (1 Bft) 100,00 %
08.11.2015 07:54 9,7 C 10,0 C 8,9 C 94 % 15 lf 1028,0 hPa 0,0 l/m 0 min 0 min 5 W/m 4,2 km/h (1 Bft) 95,74 %
08.11.2015 07:56 9,7 C 10,0 C 8,9 C 94 % 15 lf 1027,9 hPa 0,0 l/m 0 min 0 min 6 W/m 4,2 km/h (1 Bft) 97,87 %
08.11.2015 07:58 9,7 C 10,0 C 8,9 C 94 % 15 lf 1027,8 hPa 0,0 l/m 0 min 0 min 7 W/m 2,1 km/h (1 Bft) 97,87 %
08.11.2015 08:00 9,7 C 10,0 C 8,9 C 95 % 15 lf 1027,9 hPa 0,0 l/m 0 min 0 min 7 W/m 2,1 km/h (1 Bft) 100,00 %
08.11.2015 08:02 9,7 C 10,0 C 8,9 C 95 % 15 lf 1027,9 hPa 0,0 l/m 0 min 0 min 8 W/m 2,1 km/h (1 Bft) 100,00 %
08.11.2015 08:04 9,7 C 10,0 C 8,9 C 95 % 15 lf 1027,9 hPa 0,0 l/m 0 min 0 min 10 W/m 2,1 km/h (1 Bft) 97,87 %
08.11.2015 08:06 9,7 C 10,0 C 8,9 C 95 % 15 lf 1027,9 hPa 0,0 l/m 0 min 0 min 12 W/m 0,0 km/h (0 Bft) 100,00 %
08.11.2015 08:08 9,7 C 10,0 C 9,4 C 95 % 15 lf 1028,0 hPa 0,0 l/m 0 min 0 min 14 W/m 0,0 km/h (0 Bft) 100,00 %
08.11.2015 08:10 9,7 C 10,0 C 9,4 C 95 % 15 lf 1028,0 hPa 0,0 l/m 0 min 0 min 19 W/m 0,0 km/h (0 Bft) 100,00 %
08.11.2015 08:12 9,8 C 10,6 C 9,4 C 95 % 15 lf 1028,1 hPa 0,0 l/m 0 min 0 min 19 W/m 0,0 km/h (0 Bft) 100,00 %
08.11.2015 08:14 9,8 C 10,6 C 9,4 C 95 % 15 lf 1028,0 hPa 0,0 l/m 0 min 0 min 20 W/m 0,0 km/h (0 Bft) 97,83 %
08.11.2015 08:16 9,8 C 10,6 C 9,4 C 95 % 15 lf 1028,0 hPa 0,0 l/m 0 min 0 min 17 W/m 0,0 km/h (0 Bft) 100,00 %
08.11.2015 08:18 9,8 C 10,6 C 9,4 C 95 % 15 lf 1028,1 hPa 0,0 l/m 0 min 0 min 14 W/m 0,0 km/h (0 Bft) 100,00 %
08.11.2015 08:20 9,8 C 10,6 C 9,4 C 95 % 15 lf 1028,1 hPa 0,0 l/m 0 min 0 min 12 W/m 0,0 km/h (0 Bft) 97,87 %
08.11.2015 08:22 9,9 C 10,6 C 9,4 C 95 % 15 lf 1028,2 hPa 0,0 l/m 0 min 0 min 12 W/m 0,0 km/h (0 Bft) 94,00 %
08.11.2015 08:24 9,9 C 10,6 C 9,4 C 95 % 15 lf 1028,2 hPa 0,0 l/m 0 min 0 min 12 W/m 0,0 km/h (0 Bft) 93,62 %
08.11.2015 08:26 9,9 C 10,6 C 9,4 C 95 % 15 lf 1028,2 hPa 0,0 l/m 0 min 0 min 12 W/m 0,0 km/h (0 Bft) 95,65 %
08.11.2015 08:28 9,9 C 10,6 C 9,4 C 95 % 15 lf 1028,3 hPa 0,0 l/m 0 min 0 min 13 W/m 0,0 km/h (0 Bft) 95,74 %
08.11.2015 08:30 10,0 C 10,6 C 9,4 C 95 % 15 lf 1028,2 hPa 0,0 l/m 0 min 0 min 18 W/m 0,0 km/h (0 Bft) 95,74 %
08.11.2015 08:32 10,0 C 10,6 C 10,0 C 95 % 15 lf 1028,3 hPa 0,0 l/m 0 min 0 min 30 W/m 0,0 km/h (0 Bft) 93,88 %
08.11.2015 08:34 10,1 C 10,6 C 10,0 C 95 % 15 lf 1028,3 hPa 0,0 l/m 0 min 0 min 28 W/m 0,0 km/h (0 Bft) 93,48 %
08.11.2015 08:36 10,1 C 10,6 C 10,0 C 95 % 15 lf 1028,3 hPa 0,0 l/m 0 min 0 min 23 W/m 0,0 km/h (0 Bft) 95,74 %
08.11.2015 08:38 10,1 C 10,6 C 10,0 C 96 % 15 lf 1028,4 hPa 0,0 l/m 0 min 0 min 21 W/m 0,0 km/h (0 Bft) 93,62 %
08.11.2015 08:40 10,1 C 11,1 C 10,0 C 96 % 15 lf 1028,4 hPa 0,0 l/m 0 min 0 min 24 W/m 0,0 km/h (0 Bft) 91,49 %
08.11.2015 08:42 10,2 C 11,1 C 10,0 C 96 % 15 lf 1028,3 hPa 0,0 l/m 0 min 0 min 25 W/m 0,0 km/h (0 Bft) 89,36 %
08.11.2015 08:44 10,2 C 11,1 C 10,0 C 96 % 15 lf 1028,3 hPa 0,0 l/m 0 min 0 min 32 W/m 4,2 km/h (1 Bft) 89,36 %
08.11.2015 08:46 10,2 C 11,1 C 10,0 C 96 % 15 lf 1028,4 hPa 0,0 l/m 0 min 0 min 33 W/m 6,3 km/h (2 Bft) 89,13 %
08.11.2015 08:48 10,3 C 11,1 C 10,0 C 96 % 15 lf 1028,4 hPa 0,0 l/m 0 min 0 min 23 W/m 6,3 km/h (2 Bft) 91,49 %
08.11.2015 08:50 10,3 C 11,1 C 10,0 C 96 % 15 lf 1028,4 hPa 0,0 l/m 0 min 0 min 22 W/m 4,2 km/h (1 Bft) 91,49 %
08.11.2015 08:52 10,3 C 11,1 C 10,6 C 96 % 15 lf 1028,4 hPa 0,0 l/m 0 min 0 min 23 W/m 4,2 km/h (1 Bft) 89,36 %
08.11.2015 08:54 10,4 C 11,1 C 10,6 C 96 % 15 lf 1028,4 hPa 0,0 l/m 0 min 0 min 24 W/m 2,1 km/h (1 Bft) 89,36 %
08.11.2015 08:56 10,4 C 11,1 C 10,6 C 96 % 15 lf 1028,5 hPa 0,0 l/m 0 min 0 min 27 W/m 2,1 km/h (1 Bft) 91,49 %
08.11.2015 08:58 10,5 C 11,1 C 10,6 C 96 % 15 lf 1028,6 hPa 0,0 l/m 0 min 0 min 34 W/m 4,2 km/h (1 Bft) 89,13 %
08.11.2015 09:00 10,6 C 11,1 C 10,6 C 96 % 15 lf 1028,6 hPa 0,0 l/m 0 min 0 min 29 W/m 4,2 km/h (1 Bft) 91,49 %
08.11.2015 09:02 10,6 C 11,7 C 10,6 C 96 % 15 lf 1028,5 hPa 0,0 l/m 0 min 0 min 31 W/m 4,2 km/h (1 Bft) 91,49 %
08.11.2015 09:04 10,7 C 11,7 C 10,6 C 97 % 15 lf 1028,6 hPa 0,0 l/m 0 min 0 min 32 W/m 4,2 km/h (1 Bft) 91,49 %
08.11.2015 09:06 10,8 C 11,7 C 10,6 C 97 % 15 lf 1028,7 hPa 0,0 l/m 0 min 0 min 33 W/m 4,2 km/h (1 Bft) 89,36 %
08.11.2015 09:08 10,8 C 11,7 C 10,6 C 97 % 15 lf 1028,8 hPa 0,0 l/m 0 min 0 min 32 W/m 4,2 km/h (1 Bft) 91,30 %
08.11.2015 09:10 10,8 C 11,7 C 10,6 C 97 % 15 lf 1028,8 hPa 0,0 l/m 0 min 0 min 28 W/m 4,2 km/h (1 Bft) 87,23 %
08.11.2015 09:12 10,8 C 11,7 C 10,6 C 97 % 15 lf 1028,8 hPa 0,0 l/m 0 min 0 min 28 W/m 4,2 km/h (1 Bft) 89,36 %
08.11.2015 09:14 10,9 C 11,7 C 11,1 C 97 % 15 lf 1028,7 hPa 0,0 l/m 0 min 0 min 47 W/m 6,3 km/h (2 Bft) 93,62 %
08.11.2015 09:16 10,9 C 11,7 C 11,1 C 97 % 15 lf 1028,7 hPa 0,0 l/m 0 min 0 min 65 W/m 2,1 km/h (1 Bft) 91,49 %
08.11.2015 09:18 11,0 C 12,2 C 11,1 C 97 % 15 lf 1028,7 hPa 0,0 l/m 0 min 0 min 70 W/m 2,1 km/h (1 Bft) 93,62 %
08.11.2015 09:20 11,1 C 12,2 C 11,1 C 97 % 15 lf 1028,7 hPa 0,0 l/m 0 min 0 min 45 W/m 4,2 km/h (1 Bft) 93,62 %
08.11.2015 09:22 11,2 C 12,2 C 11,1 C 97 % 15 lf 1028,8 hPa 0,0 l/m 0 min 0 min 52 W/m 8,4 km/h (2 Bft) 95,65 %
08.11.2015 09:24 11,3 C 12,2 C 11,1 C 97 % 15 lf 1028,8 hPa 0,0 l/m 0 min 0 min 61 W/m 6,3 km/h (2 Bft) 95,74 %
08.11.2015 09:26 11,3 C 12,2 C 11,1 C 97 % 15 lf 1028,7 hPa 0,0 l/m 0 min 0 min 49 W/m 4,2 km/h (1 Bft) 95,74 %
08.11.2015 09:28 11,4 C 12,2 C 11,1 C 97 % 15 lf 1028,7 hPa 0,0 l/m 0 min 0 min 67 W/m 6,3 km/h (2 Bft) 93,62 %
08.11.2015 09:30 11,4 C 12,2 C 11,7 C 97 % 15 lf 1028,7 hPa 0,0 l/m 0 min 0 min 77 W/m 6,3 km/h (2 Bft) 95,74 %
08.11.2015 09:32 11,5 C 12,8 C 11,7 C 97 % 15 lf 1028,7 hPa 0,0 l/m 0 min 0 min 83 W/m 6,3 km/h (2 Bft) 100,00 %
08.11.2015 09:34 11,6 C 12,8 C 11,7 C 97 % 15 lf 1028,7 hPa 0,0 l/m 0 min 0 min 102 W/m 4,2 km/h (1 Bft) 97,87 %
08.11.2015 09:36 11,6 C 13,3 C 11,7 C 97 % 15 lf 1028,7 hPa 0,0 l/m 0 min 0 min 116 W/m 2,1 km/h (1 Bft) 95,74 %
08.11.2015 09:38 11,6 C 13,3 C 11,7 C 97 % 15 lf 1028,7 hPa 0,0 l/m 0 min 0 min 89 W/m 4,2 km/h (1 Bft) 97,83 %
08.11.2015 09:40 11,7 C 13,3 C 11,7 C 97 % 15 lf 1028,7 hPa 0,0 l/m 0 min 0 min 82 W/m 2,1 km/h (1 Bft) 95,74 %
08.11.2015 09:42 11,7 C 13,3 C 12,2 C 97 % 15 lf 1028,8 hPa 0,0 l/m 0 min 0 min 109 W/m 6,3 km/h (2 Bft) 100,00 %
08.11.2015 09:44 11,7 C 13,9 C 12,2 C 97 % 15 lf 1028,6 hPa 0,0 l/m 2 min 0 min 134 W/m 6,3 km/h (2 Bft) 100,00 %
08.11.2015 09:46 11,8 C 13,9 C 12,2 C 97 % 15 lf 1028,5 hPa 0,0 l/m 0 min 0 min 122 W/m 6,3 km/h (2 Bft) 97,87 %
08.11.2015 09:48 11,8 C 13,9 C 12,2 C 97 % 15 lf 1028,4 hPa 0,0 l/m 0 min 0 min 117 W/m 4,2 km/h (1 Bft) 97,83 %
08.11.2015 09:50 11,8 C 14,4 C 12,2 C 97 % 15 lf 1028,3 hPa 0,0 l/m 2 min 0 min 152 W/m 4,2 km/h (1 Bft) 93,62 %
08.11.2015 09:52 11,9 C 15,0 C 12,8 C 97 % 15 lf 1028,3 hPa 0,0 l/m 2 min 0 min 172 W/m 4,2 km/h (1 Bft) 100,00 %
08.11.2015 09:54 11,9 C 15,0 C 12,8 C 98 % 15 lf 1028,3 hPa 0,0 l/m 2 min 0 min 169 W/m 6,3 km/h (2 Bft) 100,00 %
08.11.2015 09:56 12,0 C 15,0 C 12,8 C 98 % 15 lf 1028,4 hPa 0,0 l/m 2 min 0 min 139 W/m 10,5 km/h (2 Bft) 100,00 %
08.11.2015 09:58 12,1 C 14,4 C 12,8 C 98 % 15 lf 1028,3 hPa 0,0 l/m 0 min 0 min 119 W/m 8,4 km/h (2 Bft) 100,00 %
08.11.2015 10:00 12,1 C 14,4 C 12,8 C 97 % 12 lf 1028,3 hPa 0,0 l/m 0 min 0 min 129 W/m 10,5 km/h (2 Bft) 100,00 %
08.11.2015 10:02 12,2 C 14,4 C 12,8 C 97 % 6 lf 1028,2 hPa 0,0 l/m 0 min 0 min 135 W/m 6,3 km/h (2 Bft) 100,00 %
08.11.2015 10:04 12,2 C 15,6 C 12,8 C 98 % 2 lf 1028,2 hPa 0,0 l/m 2 min 0 min 210 W/m 8,4 km/h (2 Bft) 100,00 %
08.11.2015 10:06 12,3 C 15,6 C 12,8 C 98 % 0 lf 1028,2 hPa 0,0 l/m 2 min 0 min 209 W/m 6,3 km/h (2 Bft) 96,08 %
08.11.2015 10:08 12,3 C 15,6 C 13,3 C 98 % 0 lf 1028,2 hPa 0,0 l/m 2 min 0 min 169 W/m 8,4 km/h (2 Bft) 95,74 %
08.11.2015 10:10 12,4 C 16,7 C 13,3 C 98 % 0 lf 1028,2 hPa 0,0 l/m 2 min 0 min 187 W/m 6,3 km/h (2 Bft) 97,83 %
08.11.2015 10:12 12,5 C 18,3 C 13,3 C 98 % 0 lf 1028,2 hPa 0,0 l/m 2 min 0 min 332 W/m 10,5 km/h (2 Bft) 95,74 %
08.11.2015 10:14 12,6 C 18,9 C 13,3 C 98 % 0 lf 1028,1 hPa 0,0 l/m 2 min 0 min 329 W/m 8,4 km/h (2 Bft) 100,00 %
08.11.2015 10:16 12,7 C 18,3 C 13,3 C 98 % 0 lf 1028,1 hPa 0,0 l/m 2 min 0 min 209 W/m 12,6 km/h (3 Bft) 100,00 %
08.11.2015 10:18 12,8 C 21,1 C 13,9 C 98 % 0 lf 1028,0 hPa 0,0 l/m 2 min 0 min 403 W/m 10,5 km/h (2 Bft) 100,00 %
08.11.2015 10:20 12,9 C 21,7 C 13,9 C 98 % 0 lf 1028,0 hPa 0,0 l/m 2 min 0 min 387 W/m 8,4 km/h (2 Bft) 100,00 %
08.11.2015 10:22 13,0 C 22,8 C 13,9 C 98 % 0 lf 1027,9 hPa 0,0 l/m 2 min 0 min 392 W/m 8,4 km/h (2 Bft) 97,83 %
08.11.2015 10:24 13,1 C 21,1 C 13,9 C 98 % 0 lf 1028,0 hPa 0,0 l/m 2 min 0 min 319 W/m 12,6 km/h (3 Bft) 97,87 %
08.11.2015 10:26 13,2 C 20,0 C 13,9 C 98 % 0 lf 1027,9 hPa 0,0 l/m 2 min 0 min 178 W/m 10,5 km/h (2 Bft) 97,87 %
08.11.2015 10:28 13,3 C 18,3 C 13,9 C 98 % 0 lf 1028,0 hPa 0,0 l/m 2 min 0 min 156 W/m 14,6 km/h (3 Bft) 100,00 %
08.11.2015 10:30 13,3 C 18,3 C 13,9 C 98 % 0 lf 1027,9 hPa 0,0 l/m 2 min 0 min 248 W/m 10,5 km/h (2 Bft) 100,00 %
08.11.2015 10:32 13,4 C 17,8 C 13,9 C 98 % 0 lf 1027,9 hPa 0,0 l/m 2 min 0 min 257 W/m 6,3 km/h (2 Bft) 100,00 %
08.11.2015 10:34 13,4 C 17,2 C 13,9 C 98 % 0 lf 1028,0 hPa 0,0 l/m 2 min 0 min 180 W/m 12,6 km/h (3 Bft) 100,00 %
08.11.2015 10:36 13,4 C 18,3 C 13,9 C 98 % 0 lf 1027,9 hPa 0,0 l/m 2 min 0 min 288 W/m 10,5 km/h (2 Bft) 97,87 %
08.11.2015 10:38 13,5 C 19,4 C 13,9 C 98 % 0 lf 1028,0 hPa 0,0 l/m 2 min 0 min 356 W/m 8,4 km/h (2 Bft) 100,00 %
08.11.2015 10:40 13,6 C 19,4 C 13,9 C 98 % 0 lf 1027,9 hPa 0,0 l/m 2 min 0 min 281 W/m 10,5 km/h (2 Bft) 100,00 %
08.11.2015 10:42 13,6 C 18,3 C 13,9 C 97 % 0 lf 1027,9 hPa 0,0 l/m 2 min 0 min 165 W/m 14,6 km/h (3 Bft) 91,49 %
08.11.2015 10:44 13,7 C 18,3 C 13,9 C 97 % 0 lf 1027,8 hPa 0,0 l/m 2 min 0 min 201 W/m 8,4 km/h (2 Bft) 100,00 %
08.11.2015 10:46 13,7 C 18,3 C 13,9 C 97 % 0 lf 1027,7 hPa 0,0 l/m 2 min 0 min 252 W/m 10,5 km/h (2 Bft) 97,87 %
08.11.2015 10:48 13,8 C 20,0 C 13,9 C 97 % 0 lf 1027,7 hPa 0,0 l/m 2 min 0 min 333 W/m 16,7 km/h (3 Bft) 97,87 %
08.11.2015 10:50 13,8 C 18,9 C 14,4 C 96 % 0 lf 1027,6 hPa 0,0 l/m 2 min 0 min 313 W/m 12,6 km/h (3 Bft) 93,62 %
08.11.2015 10:52 13,9 C 19,4 C 14,4 C 96 % 0 lf 1027,5 hPa 0,0 l/m 2 min 0 min 314 W/m 16,7 km/h (3 Bft) 97,87 %
08.11.2015 10:54 14,0 C 18,9 C 14,4 C 96 % 0 lf 1027,4 hPa 0,0 l/m 2 min 0 min 293 W/m 14,6 km/h (3 Bft) 97,83 %
08.11.2015 10:56 14,2 C 20,6 C 14,4 C 95 % 0 lf 1027,4 hPa 0,0 l/m 2 min 0 min 369 W/m 16,7 km/h (3 Bft) 97,87 %
08.11.2015 10:58 14,2 C 20,0 C 14,4 C 94 % 0 lf 1027,4 hPa 0,0 l/m 2 min 0 min 345 W/m 18,8 km/h (3 Bft) 91,49 %
08.11.2015 11:00 14,3 C 19,4 C 15,0 C 93 % 0 lf 1027,3 hPa 0,0 l/m 2 min 0 min 358 W/m 14,6 km/h (3 Bft) 95,74 %
08.11.2015 11:02 14,4 C 18,9 C 15,0 C 92 % 0 lf 1027,2 hPa 0,0 l/m 2 min 0 min 271 W/m 18,8 km/h (3 Bft) 95,74 %
08.11.2015 11:04 14,6 C 18,3 C 14,4 C 92 % 0 lf 1027,3 hPa 0,0 l/m 2 min 0 min 260 W/m 16,7 km/h (3 Bft) 97,87 %
08.11.2015 11:06 14,7 C 18,3 C 14,4 C 91 % 0 lf 1027,2 hPa 0,0 l/m 2 min 0 min 254 W/m 14,6 km/h (3 Bft) 97,83 %
08.11.2015 11:08 14,8 C 17,8 C 14,4 C 90 % 0 lf 1027,1 hPa 0,0 l/m 2 min 0 min 232 W/m 16,7 km/h (3 Bft) 95,74 %
08.11.2015 11:10 14,9 C 17,8 C 14,4 C 89 % 0 lf 1027,0 hPa 0,0 l/m 2 min 0 min 206 W/m 10,5 km/h (2 Bft) 97,87 %
08.11.2015 11:12 14,9 C 17,2 C 14,4 C 88 % 0 lf 1027,1 hPa 0,0 l/m 2 min 0 min 193 W/m 16,7 km/h (3 Bft) 93,62 %
08.11.2015 11:14 15,0 C 16,7 C 14,4 C 88 % 0 lf 1027,1 hPa 0,0 l/m 2 min 0 min 197 W/m 14,6 km/h (3 Bft) 95,74 %
08.11.2015 11:16 15,1 C 16,7 C 14,4 C 87 % 0 lf 1027,1 hPa 0,0 l/m 2 min 0 min 204 W/m 14,6 km/h (3 Bft) 95,74 %
08.11.2015 11:18 15,1 C 17,8 C 14,4 C 87 % 0 lf 1027,0 hPa 0,0 l/m 2 min 0 min 236 W/m 8,4 km/h (2 Bft) 93,48 %
08.11.2015 11:20 15,1 C 17,8 C 14,4 C 86 % 0 lf 1027,0 hPa 0,0 l/m 2 min 0 min 192 W/m 14,6 km/h (3 Bft) 93,62 %
08.11.2015 11:22 15,2 C 17,8 C 14,4 C 86 % 0 lf 1027,0 hPa 0,0 l/m 0 min 0 min 162 W/m 14,6 km/h (3 Bft) 97,14 %
08.11.2015 11:24 15,2 C 17,8 C 13,9 C 86 % 0 lf 1026,9 hPa 0,0 l/m 2 min 0 min 204 W/m 12,6 km/h (3 Bft) 91,49 %
08.11.2015 11:26 15,2 C 18,9 C 13,9 C 85 % 0 lf 1026,9 hPa 0,0 l/m 2 min 0 min 237 W/m 14,6 km/h (3 Bft) 95,74 %
08.11.2015 11:28 15,2 C 18,9 C 13,9 C 85 % 0 lf 1026,8 hPa 0,0 l/m 2 min 0 min 256 W/m 16,7 km/h (3 Bft) 95,74 %
08.11.2015 11:30 15,2 C 20,6 C 14,4 C 85 % 0 lf 1026,8 hPa 0,0 l/m 2 min 0 min 309 W/m 12,6 km/h (3 Bft) 95,74 %
08.11.2015 11:32 15,3 C 21,1 C 14,4 C 85 % 0 lf 1026,7 hPa 0,0 l/m 2 min 0 min 389 W/m 23,0 km/h (4 Bft) 89,36 %
08.11.2015 11:34 15,3 C 20,0 C 14,4 C 84 % 0 lf 1026,7 hPa 0,0 l/m 2 min 0 min 370 W/m 20,9 km/h (4 Bft) 95,65 %
08.11.2015 11:36 15,4 C 20,0 C 14,4 C 83 % 0 lf 1026,8 hPa 0,0 l/m 2 min 0 min 397 W/m 20,9 km/h (4 Bft) 95,74 %
08.11.2015 11:38 15,5 C 20,0 C 15,0 C 83 % 0 lf 1026,7 hPa 0,0 l/m 2 min 0 min 356 W/m 16,7 km/h (3 Bft) 97,87 %
08.11.2015 11:40 15,6 C 20,0 C 15,0 C 83 % 0 lf 1026,7 hPa 0,0 l/m 2 min 0 min 376 W/m 20,9 km/h (4 Bft) 91,49 %
08.11.2015 11:42 15,7 C 20,6 C 15,0 C 83 % 0 lf 1026,6 hPa 0,0 l/m 2 min 0 min 413 W/m 16,7 km/h (3 Bft) 89,36 %
08.11.2015 11:44 15,8 C 22,2 C 15,0 C 83 % 0 lf 1026,5 hPa 0,0 l/m 2 min 0 min 416 W/m 16,7 km/h (3 Bft) 89,36 %
08.11.2015 11:46 15,8 C 21,1 C 15,0 C 83 % 0 lf 1026,6 hPa 0,0 l/m 2 min 0 min 373 W/m 23,0 km/h (4 Bft) 95,65 %
08.11.2015 11:48 15,9 C 20,0 C 15,0 C 83 % 0 lf 1026,6 hPa 0,0 l/m 2 min 0 min 315 W/m 20,9 km/h (4 Bft) 93,62 %
08.11.2015 11:50 15,9 C 20,6 C 15,0 C 82 % 0 lf 1026,6 hPa 0,0 l/m 2 min 0 min 341 W/m 20,9 km/h (4 Bft) 89,36 %
08.11.2015 11:52 16,0 C 21,1 C 15,0 C 82 % 0 lf 1026,6 hPa 0,0 l/m 2 min 0 min 387 W/m 16,7 km/h (3 Bft) 95,74 %
08.11.2015 11:54 16,1 C 21,1 C 15,0 C 82 % 0 lf 1026,6 hPa 0,0 l/m 2 min 0 min 323 W/m 16,7 km/h (3 Bft) 93,62 %
08.11.2015 11:56 16,1 C 21,1 C 15,0 C 82 % 0 lf 1026,6 hPa 0,0 l/m 2 min 0 min 357 W/m 16,7 km/h (3 Bft) 91,30 %
08.11.2015 11:58 16,2 C 20,6 C 15,0 C 82 % 0 lf 1026,5 hPa 0,0 l/m 2 min 0 min 377 W/m 25,1 km/h (4 Bft) 93,62 %
08.11.2015 12:00 16,2 C 20,0 C 15,0 C 81 % 0 lf 1026,5 hPa 0,0 l/m 2 min 0 min 410 W/m 23,0 km/h (4 Bft) 95,74 %
08.11.2015 12:02 16,3 C 19,4 C 15,0 C 81 % 0 lf 1026,4 hPa 0,0 l/m 2 min 0 min 390 W/m 25,1 km/h (4 Bft) 91,49 %
08.11.2015 12:04 16,3 C 19,4 C 15,6 C 80 % 0 lf 1026,4 hPa 0,0 l/m 2 min 0 min 356 W/m 25,1 km/h (4 Bft) 91,49 %
08.11.2015 12:06 16,3 C 19,4 C 15,6 C 80 % 0 lf 1026,3 hPa 0,0 l/m 2 min 0 min 336 W/m 23,0 km/h (4 Bft) 91,49 %
08.11.2015 12:08 16,3 C 19,4 C 15,6 C 80 % 0 lf 1026,3 hPa 0,0 l/m 2 min 0 min 335 W/m 23,0 km/h (4 Bft) 93,48 %
08.11.2015 12:10 16,4 C 20,0 C 15,6 C 80 % 0 lf 1026,3 hPa 0,0 l/m 2 min 0 min 310 W/m 18,8 km/h (3 Bft) 93,62 %
08.11.2015 12:12 16,4 C 18,9 C 15,6 C 80 % 0 lf 1026,2 hPa 0,0 l/m 2 min 0 min 286 W/m 20,9 km/h (4 Bft) 91,49 %
08.11.2015 12:14 16,4 C 18,9 C 15,6 C 80 % 0 lf 1026,2 hPa 0,0 l/m 2 min 0 min 249 W/m 23,0 km/h (4 Bft) 95,74 %
08.11.2015 12:16 16,4 C 18,9 C 15,6 C 80 % 0 lf 1026,2 hPa 0,0 l/m 2 min 0 min 257 W/m 27,2 km/h (4 Bft) 93,62 %
08.11.2015 12:18 16,4 C 18,9 C 15,6 C 80 % 0 lf 1026,2 hPa 0,0 l/m 2 min 0 min 286 W/m 16,7 km/h (3 Bft) 95,74 %
08.11.2015 12:20 16,4 C 18,9 C 15,6 C 80 % 0 lf 1026,2 hPa 0,0 l/m 2 min 0 min 286 W/m 20,9 km/h (4 Bft) 95,65 %
08.11.2015 12:22 16,4 C 18,9 C 15,6 C 80 % 0 lf 1026,2 hPa 0,0 l/m 2 min 0 min 294 W/m 20,9 km/h (4 Bft) 95,74 %
08.11.2015 12:24 16,4 C 19,4 C 15,6 C 81 % 0 lf 1026,2 hPa 0,0 l/m 2 min 0 min 318 W/m 20,9 km/h (4 Bft) 93,62 %
08.11.2015 12:26 16,5 C 20,0 C 15,6 C 81 % 0 lf 1026,1 hPa 0,0 l/m 2 min 0 min 330 W/m 20,9 km/h (4 Bft) 95,74 %
08.11.2015 12:28 16,5 C 18,9 C 15,6 C 81 % 0 lf 1026,0 hPa 0,0 l/m 2 min 0 min 268 W/m 16,7 km/h (3 Bft) 95,74 %
08.11.2015 12:30 16,5 C 17,8 C 15,0 C 80 % 0 lf 1026,1 hPa 0,0 l/m 2 min 0 min 220 W/m 18,8 km/h (3 Bft) 97,87 %
08.11.2015 12:32 16,4 C 17,8 C 15,0 C 80 % 0 lf 1026,0 hPa 0,0 l/m 2 min 0 min 202 W/m 14,6 km/h (3 Bft) 92,59 %
08.11.2015 12:34 16,4 C 17,2 C 15,0 C 81 % 0 lf 1025,9 hPa 0,0 l/m 2 min 0 min 191 W/m 23,0 km/h (4 Bft) 97,87 %
08.11.2015 12:36 16,4 C 17,2 C 15,0 C 81 % 0 lf 1025,9 hPa 0,0 l/m 2 min 0 min 191 W/m 23,0 km/h (4 Bft) 95,74 %
08.11.2015 12:38 16,4 C 17,2 C 15,0 C 81 % 0 lf 1025,9 hPa 0,0 l/m 2 min 0 min 202 W/m 18,8 km/h (3 Bft) 97,87 %
08.11.2015 12:40 16,3 C 17,2 C 15,0 C 81 % 0 lf 1025,8 hPa 0,0 l/m 2 min 0 min 189 W/m 16,7 km/h (3 Bft) 93,62 %
08.11.2015 12:42 16,3 C 17,2 C 15,0 C 81 % 0 lf 1025,7 hPa 0,0 l/m 2 min 0 min 188 W/m 18,8 km/h (3 Bft) 97,96 %
08.11.2015 12:44 16,3 C 17,2 C 15,0 C 81 % 0 lf 1025,7 hPa 0,0 l/m 0 min 0 min 164 W/m 18,8 km/h (3 Bft) 97,87 %
08.11.2015 12:46 16,3 C 17,2 C 15,0 C 82 % 0 lf 1025,7 hPa 0,0 l/m 0 min 0 min 160 W/m 12,6 km/h (3 Bft) 97,87 %
08.11.2015 12:48 16,2 C 17,2 C 15,0 C 82 % 0 lf 1025,6 hPa 0,0 l/m 0 min 0 min 162 W/m 14,6 km/h (3 Bft) 95,74 %
08.11.2015 12:50 16,2 C 17,8 C 15,0 C 82 % 0 lf 1025,6 hPa 0,0 l/m 0 min 0 min 173 W/m 20,9 km/h (4 Bft) 97,87 %
08.11.2015 12:52 16,2 C 17,8 C 15,0 C 82 % 0 lf 1025,6 hPa 0,0 l/m 0 min 0 min 185 W/m 12,6 km/h (3 Bft) 93,62 %
08.11.2015 12:54 16,2 C 17,8 C 15,0 C 82 % 0 lf 1025,5 hPa 0,0 l/m 0 min 0 min 167 W/m 18,8 km/h (3 Bft) 97,83 %
08.11.2015 12:56 16,2 C 17,2 C 15,0 C 82 % 0 lf 1025,5 hPa 0,0 l/m 0 min 0 min 160 W/m 18,8 km/h (3 Bft) 97,87 %
08.11.2015 12:58 16,2 C 18,3 C 15,0 C 82 % 0 lf 1025,5 hPa 0,0 l/m 2 min 0 min 205 W/m 18,8 km/h (3 Bft) 100,00 %
08.11.2015 13:00 16,2 C 18,3 C 15,0 C 82 % 0 lf 1025,4 hPa 0,0 l/m 2 min 0 min 200 W/m 18,8 km/h (3 Bft) 100,00 %
08.11.2015 13:02 16,2 C 18,3 C 15,0 C 82 % 0 lf 1025,4 hPa 0,0 l/m 2 min 0 min 224 W/m 20,9 km/h (4 Bft) 100,00 %
08.11.2015 13:04 16,2 C 18,3 C 15,0 C 82 % 0 lf 1025,4 hPa 0,0 l/m 2 min 0 min 215 W/m 25,1 km/h (4 Bft) 93,62 %
08.11.2015 13:06 16,2 C 18,9 C 15,0 C 82 % 0 lf 1025,5 hPa 0,0 l/m 2 min 0 min 233 W/m 16,7 km/h (3 Bft) 95,65 %
08.11.2015 13:08 16,2 C 18,3 C 15,0 C 82 % 0 lf 1025,5 hPa 0,0 l/m 2 min 0 min 237 W/m 16,7 km/h (3 Bft) 100,00 %
08.11.2015 13:10 16,2 C 18,3 C 15,0 C 82 % 0 lf 1025,5 hPa 0,0 l/m 2 min 0 min 208 W/m 14,6 km/h (3 Bft) 95,74 %
08.11.2015 13:12 16,2 C 18,3 C 15,0 C 82 % 0 lf 1025,5 hPa 0,0 l/m 2 min 0 min 245 W/m 18,8 km/h (3 Bft) 100,00 %
08.11.2015 13:14 16,2 C 18,9 C 15,0 C 82 % 0 lf 1025,4 hPa 0,0 l/m 2 min 0 min 242 W/m 23,0 km/h (4 Bft) 95,74 %
08.11.2015 13:16 16,3 C 18,9 C 15,0 C 82 % 0 lf 1025,3 hPa 0,0 l/m 2 min 0 min 231 W/m 20,9 km/h (4 Bft) 95,74 %
08.11.2015 13:18 16,3 C 18,3 C 15,6 C 82 % 0 lf 1025,4 hPa 0,0 l/m 2 min 0 min 240 W/m 18,8 km/h (3 Bft) 95,65 %
08.11.2015 13:20 16,3 C 18,3 C 15,6 C 82 % 0 lf 1025,3 hPa 0,0 l/m 2 min 0 min 231 W/m 18,8 km/h (3 Bft) 95,74 %
08.11.2015 13:22 16,3 C 18,3 C 15,6 C 82 % 0 lf 1025,3 hPa 0,0 l/m 2 min 0 min 207 W/m 14,6 km/h (3 Bft) 97,87 %
08.11.2015 13:24 16,4 C 18,3 C 15,6 C 82 % 0 lf 1025,3 hPa 0,0 l/m 2 min 0 min 212 W/m 14,6 km/h (3 Bft) 95,74 %
08.11.2015 13:26 16,4 C 18,9 C 15,6 C 82 % 0 lf 1025,2 hPa 0,0 l/m 2 min 0 min 221 W/m 16,7 km/h (3 Bft) 97,87 %
08.11.2015 13:28 16,4 C 18,9 C 15,6 C 82 % 0 lf 1025,0 hPa 0,0 l/m 2 min 0 min 218 W/m 16,7 km/h (3 Bft) 97,87 %
08.11.2015 13:30 16,4 C 18,9 C 15,6 C 82 % 0 lf 1025,0 hPa 0,0 l/m 2 min 0 min 252 W/m 16,7 km/h (3 Bft) 95,65 %
08.11.2015 13:32 16,5 C 18,9 C 15,6 C 82 % 0 lf 1025,0 hPa 0,0 l/m 2 min 0 min 258 W/m 18,8 km/h (3 Bft) 95,83 %
08.11.2015 13:34 16,5 C 19,4 C 15,6 C 82 % 0 lf 1025,0 hPa 0,0 l/m 2 min 0 min 258 W/m 16,7 km/h (3 Bft) 95,74 %
08.11.2015 13:36 16,6 C 18,9 C 15,6 C 82 % 0 lf 1024,9 hPa 0,0 l/m 2 min 0 min 237 W/m 14,6 km/h (3 Bft) 97,87 %
08.11.2015 13:38 16,6 C 18,9 C 15,6 C 82 % 0 lf 1024,9 hPa 0,0 l/m 2 min 0 min 209 W/m 20,9 km/h (4 Bft) 97,83 %
08.11.2015 13:40 16,6 C 18,9 C 15,6 C 82 % 0 lf 1024,9 hPa 0,0 l/m 2 min 0 min 197 W/m 20,9 km/h (4 Bft) 95,74 %
08.11.2015 13:42 16,7 C 18,9 C 15,6 C 82 % 0 lf 1024,9 hPa 0,0 l/m 2 min 0 min 211 W/m 18,8 km/h (3 Bft) 97,87 %
08.11.2015 13:44 16,7 C 18,3 C 15,6 C 82 % 0 lf 1024,8 hPa 0,0 l/m 2 min 0 min 199 W/m 23,0 km/h (4 Bft) 97,87 %
08.11.2015 13:46 16,7 C 17,8 C 15,6 C 81 % 0 lf 1024,8 hPa 0,0 l/m 2 min 0 min 200 W/m 16,7 km/h (3 Bft) 93,62 %
08.11.2015 13:48 16,7 C 18,3 C 15,6 C 81 % 0 lf 1024,8 hPa 0,0 l/m 2 min 0 min 183 W/m 16,7 km/h (3 Bft) 93,62 %
08.11.2015 13:50 16,7 C 18,3 C 15,6 C 82 % 0 lf 1024,9 hPa 0,0 l/m 2 min 0 min 186 W/m 16,7 km/h (3 Bft) 100,00 %
08.11.2015 13:52 16,7 C 18,3 C 15,6 C 82 % 0 lf 1024,9 hPa 0,0 l/m 2 min 0 min 183 W/m 14,6 km/h (3 Bft) 97,22 %
08.11.2015 13:54 16,7 C 18,3 C 15,6 C 82 % 0 lf 1024,8 hPa 0,0 l/m 2 min 0 min 174 W/m 23,0 km/h (4 Bft) 95,65 %
08.11.2015 13:56 16,7 C 18,3 C 15,6 C 82 % 0 lf 1024,8 hPa 0,0 l/m 2 min 0 min 176 W/m 18,8 km/h (3 Bft) 93,62 %
08.11.2015 13:58 16,7 C 17,8 C 15,6 C 82 % 0 lf 1024,8 hPa 0,0 l/m 2 min 0 min 172 W/m 14,6 km/h (3 Bft) 93,62 %
08.11.2015 14:00 16,7 C 17,8 C 15,6 C 82 % 0 lf 1024,7 hPa 0,0 l/m 2 min 0 min 167 W/m 20,9 km/h (4 Bft) 98,31 %
08.11.2015 14:02 16,7 C 17,8 C 15,6 C 82 % 0 lf 1024,7 hPa 0,0 l/m 2 min 0 min 168 W/m 18,8 km/h (3 Bft) 97,14 %
08.11.2015 14:04 16,7 C 17,8 C 15,6 C 82 % 0 lf 1024,7 hPa 0,0 l/m 2 min 0 min 171 W/m 14,6 km/h (3 Bft) 97,87 %
08.11.2015 14:06 16,6 C 17,8 C 15,6 C 82 % 0 lf 1024,7 hPa 0,0 l/m 2 min 0 min 171 W/m 14,6 km/h (3 Bft) 97,83 %
08.11.2015 14:08 16,6 C 17,8 C 15,6 C 82 % 0 lf 1024,7 hPa 0,0 l/m 2 min 0 min 172 W/m 16,7 km/h (3 Bft) 96,61 %
08.11.2015 14:10 16,6 C 17,8 C 15,6 C 82 % 0 lf 1024,7 hPa 0,0 l/m 2 min 0 min 176 W/m 16,7 km/h (3 Bft) 97,14 %
08.11.2015 14:12 16,6 C 17,8 C 15,6 C 82 % 0 lf 1024,7 hPa 0,0 l/m 2 min 0 min 176 W/m 18,8 km/h (3 Bft) 98,15 %
08.11.2015 14:14 16,6 C 18,3 C 15,6 C 82 % 0 lf 1024,6 hPa 0,0 l/m 2 min 0 min 176 W/m 14,6 km/h (3 Bft) 95,74 %
08.11.2015 14:16 16,7 C 18,3 C 15,6 C 82 % 0 lf 1024,6 hPa 0,0 l/m 2 min 0 min 177 W/m 8,4 km/h (2 Bft) 93,62 %
08.11.2015 14:18 16,7 C 18,3 C 15,6 C 82 % 0 lf 1024,6 hPa 0,0 l/m 2 min 0 min 174 W/m 16,7 km/h (3 Bft) 97,83 %
08.11.2015 14:20 16,7 C 18,3 C 15,6 C 82 % 0 lf 1024,7 hPa 0,0 l/m 2 min 0 min 168 W/m 10,5 km/h (2 Bft) 95,74 %
08.11.2015 14:22 16,7 C 18,3 C 15,6 C 82 % 0 lf 1024,6 hPa 0,0 l/m 2 min 0 min 166 W/m 14,6 km/h (3 Bft) 91,84 %
08.11.2015 14:24 16,7 C 17,8 C 15,6 C 82 % 0 lf 1024,6 hPa 0,0 l/m 2 min 0 min 152 W/m 12,6 km/h (3 Bft) 97,87 %
08.11.2015 14:26 16,7 C 17,8 C 15,6 C 82 % 0 lf 1024,5 hPa 0,0 l/m 2 min 0 min 147 W/m 18,8 km/h (3 Bft) 95,74 %
08.11.2015 14:28 16,7 C 17,8 C 15,6 C 82 % 0 lf 1024,5 hPa 0,0 l/m 0 min 0 min 141 W/m 14,6 km/h (3 Bft) 95,74 %
08.11.2015 14:30 16,7 C 17,8 C 15,6 C 82 % 0 lf 1024,4 hPa 0,0 l/m 2 min 0 min 141 W/m 10,5 km/h (2 Bft) 97,83 %
08.11.2015 14:32 16,7 C 17,8 C 15,6 C 82 % 0 lf 1024,4 hPa 0,0 l/m 0 min 0 min 133 W/m 14,6 km/h (3 Bft) 97,87 %
08.11.2015 14:34 16,7 C 17,8 C 15,6 C 82 % 0 lf 1024,3 hPa 0,0 l/m 0 min 0 min 121 W/m 14,6 km/h (3 Bft) 95,74 %
08.11.2015 14:36 16,7 C 17,2 C 15,6 C 82 % 0 lf 1024,4 hPa 0,0 l/m 0 min 0 min 115 W/m 16,7 km/h (3 Bft) 97,87 %
08.11.2015 14:38 16,7 C 17,2 C 15,6 C 82 % 0 lf 1024,3 hPa 0,0 l/m 0 min 0 min 103 W/m 14,6 km/h (3 Bft) 97,87 %
08.11.2015 14:40 16,7 C 17,2 C 15,6 C 82 % 0 lf 1024,4 hPa 0,0 l/m 0 min 0 min 94 W/m 10,5 km/h (2 Bft) 95,74 %
08.11.2015 14:42 16,7 C 17,2 C 15,6 C 82 % 0 lf 1024,3 hPa 0,0 l/m 0 min 0 min 90 W/m 12,6 km/h (3 Bft) 95,65 %
08.11.2015 14:44 16,7 C 17,2 C 15,6 C 82 % 0 lf 1024,3 hPa 0,0 l/m 0 min 0 min 91 W/m 14,6 km/h (3 Bft) 95,74 %
08.11.2015 14:46 16,7 C 17,2 C 15,6 C 82 % 0 lf 1024,3 hPa 0,0 l/m 0 min 0 min 96 W/m 14,6 km/h (3 Bft) 95,74 %
08.11.2015 14:48 16,7 C 17,2 C 15,6 C 82 % 0 lf 1024,3 hPa 0,0 l/m 0 min 0 min 106 W/m 8,4 km/h (2 Bft) 97,87 %
08.11.2015 14:50 16,7 C 17,2 C 15,6 C 82 % 0 lf 1024,2 hPa 0,0 l/m 0 min 0 min 113 W/m 12,6 km/h (3 Bft) 97,87 %
08.11.2015 14:52 16,7 C 17,2 C 15,6 C 82 % 0 lf 1024,2 hPa 0,0 l/m 0 min 0 min 112 W/m 14,6 km/h (3 Bft) 95,74 %
08.11.2015 14:54 16,7 C 17,2 C 15,6 C 82 % 0 lf 1024,1 hPa 0,0 l/m 0 min 0 min 109 W/m 10,5 km/h (2 Bft) 97,87 %
08.11.2015 14:56 16,7 C 17,2 C 15,6 C 82 % 0 lf 1024,1 hPa 0,0 l/m 0 min 0 min 109 W/m 16,7 km/h (3 Bft) 95,74 %
08.11.2015 14:58 16,7 C 17,2 C 15,6 C 82 % 0 lf 1024,1 hPa 0,0 l/m 0 min 0 min 108 W/m 12,6 km/h (3 Bft) 95,74 %
08.11.2015 15:00 16,7 C 17,2 C 15,6 C 82 % 0 lf 1024,1 hPa 0,0 l/m 0 min 0 min 104 W/m 14,6 km/h (3 Bft) 97,87 %
08.11.2015 15:02 16,7 C 17,2 C 15,6 C 82 % 0 lf 1024,1 hPa 0,0 l/m 0 min 0 min 101 W/m 12,6 km/h (3 Bft) 97,87 %
08.11.2015 15:04 16,7 C 17,2 C 15,6 C 82 % 0 lf 1024,1 hPa 0,0 l/m 0 min 0 min 105 W/m 12,6 km/h (3 Bft) 97,83 %
08.11.2015 15:06 16,7 C 17,2 C 15,6 C 82 % 0 lf 1024,0 hPa 0,0 l/m 0 min 0 min 103 W/m 12,6 km/h (3 Bft) 95,74 %
08.11.2015 15:08 16,7 C 17,2 C 15,6 C 82 % 0 lf 1023,9 hPa 0,0 l/m 0 min 0 min 100 W/m 10,5 km/h (2 Bft) 93,62 %
08.11.2015 15:10 16,7 C 17,2 C 15,6 C 82 % 0 lf 1023,9 hPa 0,0 l/m 0 min 0 min 96 W/m 12,6 km/h (3 Bft) 97,87 %
08.11.2015 15:12 16,7 C 17,2 C 15,6 C 82 % 0 lf 1023,8 hPa 0,0 l/m 0 min 0 min 92 W/m 14,6 km/h (3 Bft) 97,87 %
08.11.2015 15:14 16,7 C 17,2 C 15,6 C 82 % 0 lf 1023,8 hPa 0,0 l/m 0 min 0 min 90 W/m 14,6 km/h (3 Bft) 95,74 %
08.11.2015 15:16 16,7 C 17,2 C 15,6 C 82 % 0 lf 1023,7 hPa 0,0 l/m 0 min 0 min 78 W/m 20,9 km/h (4 Bft) 97,83 %
08.11.2015 15:18 16,7 C 17,2 C 15,6 C 82 % 0 lf 1023,7 hPa 0,0 l/m 0 min 0 min 71 W/m 16,7 km/h (3 Bft) 95,74 %
08.11.2015 15:20 16,7 C 17,2 C 15,6 C 82 % 0 lf 1023,7 hPa 0,0 l/m 0 min 0 min 68 W/m 23,0 km/h (4 Bft) 97,87 %
08.11.2015 15:22 16,7 C 17,2 C 15,6 C 82 % 0 lf 1023,6 hPa 0,0 l/m 0 min 0 min 67 W/m 18,8 km/h (3 Bft) 93,75 %
08.11.2015 15:24 16,7 C 17,2 C 15,6 C 82 % 0 lf 1023,4 hPa 0,0 l/m 0 min 0 min 80 W/m 16,7 km/h (3 Bft) 93,62 %
08.11.2015 15:26 16,7 C 17,2 C 15,6 C 82 % 0 lf 1023,3 hPa 0,0 l/m 0 min 0 min 80 W/m 16,7 km/h (3 Bft) 95,65 %
08.11.2015 15:28 16,7 C 17,2 C 15,6 C 82 % 0 lf 1023,1 hPa 0,0 l/m 0 min 0 min 75 W/m 16,7 km/h (3 Bft) 95,74 %
08.11.2015 15:30 16,7 C 17,2 C 15,6 C 82 % 0 lf 1023,0 hPa 0,0 l/m 0 min 0 min 71 W/m 14,6 km/h (3 Bft) 93,62 %
08.11.2015 15:32 16,7 C 17,2 C 15,6 C 82 % 0 lf 1022,9 hPa 0,0 l/m 0 min 0 min 67 W/m 12,6 km/h (3 Bft) 93,75 %
08.11.2015 15:34 16,7 C 17,2 C 15,6 C 82 % 0 lf 1022,9 hPa 0,0 l/m 0 min 0 min 63 W/m 20,9 km/h (4 Bft) 91,49 %
08.11.2015 15:36 16,7 C 17,2 C 15,6 C 82 % 0 lf 1022,8 hPa 0,0 l/m 0 min 0 min 62 W/m 23,0 km/h (4 Bft) 91,30 %
08.11.2015 15:38 16,7 C 17,2 C 15,6 C 82 % 0 lf 1022,8 hPa 0,0 l/m 0 min 0 min 56 W/m 18,8 km/h (3 Bft) 95,74 %
08.11.2015 15:40 16,7 C 17,2 C 15,6 C 82 % 0 lf 1022,7 hPa 0,0 l/m 0 min 0 min 59 W/m 18,8 km/h (3 Bft) 95,74 %
08.11.2015 15:42 16,7 C 17,2 C 15,6 C 82 % 0 lf 1022,7 hPa 0,0 l/m 0 min 0 min 58 W/m 14,6 km/h (3 Bft) 95,74 %
08.11.2015 15:44 16,7 C 17,2 C 15,0 C 82 % 0 lf 1022,7 hPa 0,0 l/m 0 min 0 min 57 W/m 12,6 km/h (3 Bft) 95,74 %
08.11.2015 15:46 16,7 C 17,2 C 15,0 C 82 % 0 lf 1022,8 hPa 0,0 l/m 0 min 0 min 59 W/m 14,6 km/h (3 Bft) 93,62 %
08.11.2015 15:48 16,7 C 16,7 C 15,0 C 82 % 0 lf 1022,6 hPa 0,0 l/m 0 min 0 min 60 W/m 14,6 km/h (3 Bft) 93,48 %
08.11.2015 15:50 16,7 C 16,7 C 15,0 C 82 % 0 lf 1022,6 hPa 0,0 l/m 0 min 0 min 60 W/m 14,6 km/h (3 Bft) 93,62 %
08.11.2015 15:52 16,7 C 16,7 C 15,0 C 82 % 0 lf 1022,6 hPa 0,0 l/m 0 min 0 min 61 W/m 14,6 km/h (3 Bft) 94,29 %
08.11.2015 15:54 16,7 C 16,7 C 15,0 C 82 % 0 lf 1022,5 hPa 0,0 l/m 0 min 0 min 62 W/m 12,6 km/h (3 Bft) 93,62 %
08.11.2015 15:56 16,6 C 16,7 C 15,0 C 82 % 0 lf 1022,6 hPa 0,0 l/m 0 min 0 min 61 W/m 10,5 km/h (2 Bft) 93,62 %
08.11.2015 15:58 16,6 C 16,7 C 15,0 C 82 % 0 lf 1022,5 hPa 0,0 l/m 0 min 0 min 57 W/m 14,6 km/h (3 Bft) 95,74 %
08.11.2015 16:00 16,6 C 16,7 C 15,0 C 82 % 0 lf 1022,5 hPa 0,0 l/m 0 min 0 min 54 W/m 10,5 km/h (2 Bft) 93,62 %
08.11.2015 16:02 16,6 C 16,7 C 14,4 C 82 % 0 lf 1022,4 hPa 0,0 l/m 0 min 0 min 53 W/m 10,5 km/h (2 Bft) 89,13 %
08.11.2015 16:04 16,6 C 16,7 C 14,4 C 82 % 0 lf 1022,4 hPa 0,0 l/m 0 min 0 min 53 W/m 14,6 km/h (3 Bft) 95,74 %
08.11.2015 16:06 16,5 C 16,7 C 14,4 C 82 % 0 lf 1022,4 hPa 0,0 l/m 0 min 0 min 50 W/m 14,6 km/h (3 Bft) 97,87 %
08.11.2015 16:08 16,5 C 16,7 C 14,4 C 82 % 0 lf 1022,3 hPa 0,0 l/m 0 min 0 min 49 W/m 12,6 km/h (3 Bft) 95,74 %
08.11.2015 16:10 16,4 C 16,7 C 14,4 C 82 % 0 lf 1022,3 hPa 0,0 l/m 0 min 0 min 47 W/m 12,6 km/h (3 Bft) 95,74 %
08.11.2015 16:12 16,4 C 16,7 C 14,4 C 82 % 0 lf 1022,4 hPa 0,0 l/m 0 min 0 min 45 W/m 10,5 km/h (2 Bft) 98,18 %
08.11.2015 16:14 16,4 C 16,1 C 14,4 C 82 % 0 lf 1022,3 hPa 0,0 l/m 0 min 0 min 42 W/m 8,4 km/h (2 Bft) 97,83 %
08.11.2015 16:16 16,4 C 16,1 C 14,4 C 83 % 0 lf 1022,3 hPa 0,0 l/m 0 min 0 min 40 W/m 10,5 km/h (2 Bft) 97,87 %
08.11.2015 16:18 16,4 C 16,1 C 14,4 C 83 % 0 lf 1022,3 hPa 0,0 l/m 0 min 0 min 38 W/m 12,6 km/h (3 Bft) 97,87 %
08.11.2015 16:20 16,3 C 16,1 C 14,4 C 83 % 0 lf 1022,3 hPa 0,0 l/m 0 min 0 min 35 W/m 8,4 km/h (2 Bft) 95,74 %
08.11.2015 16:22 16,3 C 16,1 C 14,4 C 83 % 0 lf 1022,3 hPa 0,0 l/m 0 min 0 min 33 W/m 8,4 km/h (2 Bft) 100,00 %
08.11.2015 16:24 16,3 C 16,1 C 14,4 C 83 % 0 lf 1022,3 hPa 0,0 l/m 0 min 0 min 31 W/m 6,3 km/h (2 Bft) 97,87 %
08.11.2015 16:26 16,3 C 16,1 C 13,9 C 83 % 0 lf 1022,2 hPa 0,0 l/m 2 min 0 min 30 W/m 8,4 km/h (2 Bft) 100,00 %
08.11.2015 16:28 16,3 C 16,1 C 13,9 C 83 % 0 lf 1022,2 hPa 0,0 l/m 2 min 0 min 28 W/m 10,5 km/h (2 Bft) 100,00 %
08.11.2015 16:30 16,2 C 16,1 C 13,9 C 83 % 0 lf 1022,2 hPa 0,0 l/m 2 min 0 min 26 W/m 8,4 km/h (2 Bft) 97,87 %
08.11.2015 16:32 16,2 C 16,1 C 13,9 C 83 % 0 lf 1022,1 hPa 0,0 l/m 2 min 0 min 25 W/m 10,5 km/h (2 Bft) 100,00 %
08.11.2015 16:34 16,2 C 16,1 C 13,9 C 83 % 0 lf 1022,1 hPa 0,0 l/m 2 min 0 min 22 W/m 8,4 km/h (2 Bft) 95,74 %
08.11.2015 16:36 16,2 C 15,6 C 13,9 C 83 % 0 lf 1022,1 hPa 0,0 l/m 2 min 0 min 19 W/m 8,4 km/h (2 Bft) 95,74 %
08.11.2015 16:38 16,1 C 15,6 C 13,9 C 83 % 0 lf 1022,1 hPa 0,0 l/m 0 min 0 min 18 W/m 8,4 km/h (2 Bft) 95,65 %
08.11.2015 16:40 16,1 C 15,6 C 13,9 C 84 % 0 lf 1022,0 hPa 0,0 l/m 0 min 0 min 17 W/m 8,4 km/h (2 Bft) 97,87 %
08.11.2015 16:42 16,1 C 15,6 C 13,9 C 84 % 0 lf 1022,0 hPa 0,0 l/m 0 min 0 min 14 W/m 10,5 km/h (2 Bft) 95,74 %
08.11.2015 16:44 16,1 C 15,6 C 13,9 C 84 % 0 lf 1021,9 hPa 0,0 l/m 0 min 0 min 12 W/m 8,4 km/h (2 Bft) 97,87 %
08.11.2015 16:46 16,0 C 15,6 C 13,9 C 84 % 0 lf 1021,9 hPa 0,0 l/m 0 min 0 min 11 W/m 10,5 km/h (2 Bft) 97,87 %
08.11.2015 16:48 16,0 C 15,6 C 13,3 C 84 % 0 lf 1021,8 hPa 0,0 l/m 0 min 0 min 9 W/m 12,6 km/h (3 Bft) 95,74 %
08.11.2015 16:50 15,9 C 15,6 C 13,3 C 84 % 0 lf 1021,8 hPa 0,0 l/m 0 min 0 min 7 W/m 12,6 km/h (3 Bft) 97,83 %
08.11.2015 16:52 15,9 C 15,6 C 13,3 C 84 % 0 lf 1021,8 hPa 0,0 l/m 0 min 0 min 6 W/m 14,6 km/h (3 Bft) 95,74 %
08.11.2015 16:54 15,9 C 15,6 C 13,3 C 84 % 0 lf 1021,7 hPa 0,0 l/m 0 min 0 min 5 W/m 14,6 km/h (3 Bft) 97,87 %
08.11.2015 16:56 15,9 C 15,6 C 13,3 C 84 % 0 lf 1021,7 hPa 0,0 l/m 0 min 0 min 5 W/m 12,6 km/h (3 Bft) 93,62 %
08.11.2015 16:58 15,8 C 15,6 C 13,3 C 84 % 0 lf 1021,6 hPa 0,0 l/m 0 min 0 min 3 W/m 10,5 km/h (2 Bft) 95,74 %
08.11.2015 17:00 15,8 C 15,6 C 13,3 C 85 % 0 lf 1021,7 hPa 0,0 l/m 0 min 0 min 0 W/m 10,5 km/h (2 Bft) 97,83 %
08.11.2015 17:02 15,8 C 15,6 C 13,3 C 85 % 0 lf 1021,7 hPa 0,0 l/m 0 min 0 min 0 W/m 12,6 km/h (3 Bft) 95,74 %
08.11.2015 17:04 15,7 C 15,6 C 13,3 C 85 % 0 lf 1021,7 hPa 0,0 l/m 0 min 0 min 0 W/m 10,5 km/h (2 Bft) 95,74 %
08.11.2015 17:06 15,7 C 15,6 C 13,3 C 85 % 0 lf 1021,6 hPa 0,0 l/m 0 min 0 min 0 W/m 10,5 km/h (2 Bft) 97,87 %
08.11.2015 17:08 15,7 C 15,6 C 13,3 C 85 % 0 lf 1021,6 hPa 0,0 l/m 0 min 0 min 0 W/m 8,4 km/h (2 Bft) 95,74 %
08.11.2015 17:10 15,7 C 15,0 C 13,3 C 85 % 0 lf 1021,6 hPa 0,0 l/m 0 min 0 min 0 W/m 8,4 km/h (2 Bft) 97,87 %
08.11.2015 17:12 15,6 C 15,0 C 13,3 C 85 % 0 lf 1021,6 hPa 0,0 l/m 0 min 0 min 0 W/m 14,6 km/h (3 Bft) 97,92 %
08.11.2015 17:14 15,6 C 15,0 C 13,3 C 85 % 0 lf 1021,6 hPa 0,0 l/m 0 min 0 min 0 W/m 8,4 km/h (2 Bft) 93,75 %
08.11.2015 17:16 15,6 C 15,0 C 13,3 C 85 % 0 lf 1021,5 hPa 0,0 l/m 0 min 0 min 0 W/m 8,4 km/h (2 Bft) 97,87 %
08.11.2015 17:18 15,6 C 15,0 C 13,3 C 86 % 0 lf 1021,5 hPa 0,0 l/m 0 min 0 min 0 W/m 8,4 km/h (2 Bft) 95,74 %
08.11.2015 17:20 15,5 C 15,0 C 13,3 C 86 % 0 lf 1021,5 hPa 0,0 l/m 0 min 0 min 0 W/m 8,4 km/h (2 Bft) 95,65 %
08.11.2015 17:22 15,5 C 15,0 C 13,3 C 86 % 0 lf 1021,5 hPa 0,0 l/m 0 min 0 min 0 W/m 10,5 km/h (2 Bft) 100,00 %
08.11.2015 17:24 15,5 C 15,0 C 13,3 C 86 % 0 lf 1021,4 hPa 0,0 l/m 0 min 0 min 0 W/m 14,6 km/h (3 Bft) 97,87 %
08.11.2015 17:26 15,4 C 15,0 C 13,3 C 86 % 0 lf 1021,4 hPa 0,0 l/m 0 min 0 min 0 W/m 8,4 km/h (2 Bft) 97,87 %
08.11.2015 17:28 15,4 C 15,0 C 13,3 C 86 % 0 lf 1021,4 hPa 0,0 l/m 0 min 0 min 0 W/m 12,6 km/h (3 Bft) 97,87 %
08.11.2015 17:30 15,4 C 15,0 C 13,3 C 87 % 0 lf 1021,4 hPa 0,0 l/m 0 min 0 min 0 W/m 12,6 km/h (3 Bft) 95,74 %
08.11.2015 17:32 15,4 C 15,6 C 13,3 C 87 % 0 lf 1021,4 hPa 0,0 l/m 0 min 0 min 0 W/m 14,6 km/h (3 Bft) 95,12 %
08.11.2015 17:34 15,4 C 15,6 C 13,3 C 87 % 0 lf 1021,4 hPa 0,0 l/m 0 min 0 min 0 W/m 10,5 km/h (2 Bft) 95,74 %
08.11.2015 17:36 15,3 C 15,0 C 13,3 C 87 % 0 lf 1021,3 hPa 0,0 l/m 0 min 0 min 0 W/m 12,6 km/h (3 Bft) 97,87 %
08.11.2015 17:38 15,3 C 15,0 C 13,3 C 87 % 0 lf 1021,3 hPa 0,0 l/m 0 min 0 min 0 W/m 14,6 km/h (3 Bft) 97,83 %
08.11.2015 17:40 15,3 C 15,0 C 13,3 C 87 % 0 lf 1021,2 hPa 0,0 l/m 0 min 0 min 0 W/m 12,6 km/h (3 Bft) 97,87 %
08.11.2015 17:42 15,3 C 15,0 C 13,3 C 87 % 0 lf 1021,2 hPa 0,0 l/m 0 min 0 min 0 W/m 12,6 km/h (3 Bft) 97,87 %
08.11.2015 17:44 15,3 C 15,0 C 13,3 C 88 % 0 lf 1021,2 hPa 0,0 l/m 0 min 0 min 0 W/m 12,6 km/h (3 Bft) 97,87 %
08.11.2015 17:46 15,3 C 15,0 C 13,3 C 88 % 0 lf 1021,1 hPa 0,0 l/m 0 min 0 min 0 W/m 12,6 km/h (3 Bft) 97,87 %
08.11.2015 17:48 15,3 C 15,0 C 13,3 C 88 % 0 lf 1021,1 hPa 0,0 l/m 0 min 0 min 0 W/m 10,5 km/h (2 Bft) 95,65 %
08.11.2015 17:50 15,3 C 15,0 C 13,3 C 88 % 0 lf 1021,1 hPa 0,0 l/m 0 min 0 min 0 W/m 14,6 km/h (3 Bft) 95,74 %
08.11.2015 17:52 15,2 C 15,0 C 13,3 C 88 % 0 lf 1021,0 hPa 0,0 l/m 0 min 0 min 0 W/m 14,6 km/h (3 Bft) 97,92 %
08.11.2015 17:54 15,2 C 15,0 C 13,3 C 88 % 0 lf 1021,0 hPa 0,0 l/m 0 min 0 min 0 W/m 12,6 km/h (3 Bft) 97,87 %
08.11.2015 17:56 15,2 C 15,0 C 13,3 C 88 % 0 lf 1021,1 hPa 0,0 l/m 0 min 0 min 0 W/m 10,5 km/h (2 Bft) 97,87 %
08.11.2015 17:58 15,2 C 15,0 C 13,3 C 88 % 0 lf 1021,0 hPa 0,0 l/m 0 min 0 min 0 W/m 12,6 km/h (3 Bft) 95,74 %
08.11.2015 18:00 15,2 C 15,0 C 13,3 C 88 % 0 lf 1020,9 hPa 0,0 l/m 0 min 0 min 0 W/m 16,7 km/h (3 Bft) 93,48 %
08.11.2015 18:02 15,2 C 15,0 C 13,3 C 88 % 0 lf 1020,9 hPa 0,0 l/m 0 min 0 min 0 W/m 10,5 km/h (2 Bft) 94,00 %
08.11.2015 18:04 15,2 C 15,0 C 13,3 C 89 % 0 lf 1020,9 hPa 0,0 l/m 0 min 0 min 0 W/m 12,6 km/h (3 Bft) 97,92 %
08.11.2015 18:06 15,2 C 15,0 C 13,3 C 89 % 0 lf 1020,8 hPa 0,0 l/m 0 min 0 min 0 W/m 14,6 km/h (3 Bft) 95,74 %
08.11.2015 18:08 15,1 C 15,0 C 13,3 C 89 % 0 lf 1020,7 hPa 0,0 l/m 0 min 0 min 0 W/m 14,6 km/h (3 Bft) 97,87 %
08.11.2015 18:10 15,1 C 15,0 C 13,3 C 89 % 0 lf 1020,6 hPa 0,0 l/m 0 min 0 min 0 W/m 12,6 km/h (3 Bft) 97,83 %
08.11.2015 18:12 15,1 C 15,0 C 13,3 C 89 % 0 lf 1020,5 hPa 0,0 l/m 0 min 0 min 0 W/m 14,6 km/h (3 Bft) 93,62 %
08.11.2015 18:14 15,1 C 15,0 C 13,3 C 89 % 0 lf 1020,5 hPa 0,0 l/m 0 min 0 min 0 W/m 18,8 km/h (3 Bft) 97,87 %
08.11.2015 18:16 15,1 C 15,0 C 13,3 C 89 % 0 lf 1020,5 hPa 0,0 l/m 0 min 0 min 0 W/m 20,9 km/h (4 Bft) 97,87 %
08.11.2015 18:18 15,1 C 15,0 C 13,3 C 89 % 0 lf 1020,4 hPa 0,0 l/m 0 min 0 min 0 W/m 12,6 km/h (3 Bft) 97,87 %
08.11.2015 18:20 15,0 C 15,0 C 13,3 C 89 % 0 lf 1020,3 hPa 0,0 l/m 0 min 0 min 0 W/m 14,6 km/h (3 Bft) 91,49 %
08.11.2015 18:22 15,0 C 15,0 C 13,3 C 90 % 0 lf 1020,4 hPa 0,0 l/m 0 min 0 min 0 W/m 14,6 km/h (3 Bft) 95,65 %
08.11.2015 18:24 15,0 C 15,0 C 13,3 C 90 % 0 lf 1020,3 hPa 0,0 l/m 0 min 0 min 0 W/m 16,7 km/h (3 Bft) 95,74 %
08.11.2015 18:26 14,9 C 15,0 C 13,3 C 90 % 0 lf 1020,3 hPa 0,0 l/m 0 min 0 min 0 W/m 12,6 km/h (3 Bft) 95,74 %
08.11.2015 18:28 14,9 C 15,0 C 13,3 C 90 % 0 lf 1020,2 hPa 0,0 l/m 0 min 0 min 0 W/m 16,7 km/h (3 Bft) 93,62 %
08.11.2015 18:30 14,9 C 15,0 C 13,3 C 90 % 0 lf 1020,3 hPa 0,0 l/m 0 min 0 min 0 W/m 14,6 km/h (3 Bft) 95,74 %
08.11.2015 18:32 14,9 C 14,4 C 13,3 C 90 % 0 lf 1020,2 hPa 0,0 l/m 0 min 0 min 0 W/m 12,6 km/h (3 Bft) 93,62 %
08.11.2015 18:34 14,9 C 15,0 C 13,3 C 90 % 0 lf 1020,3 hPa 0,0 l/m 0 min 0 min 0 W/m 16,7 km/h (3 Bft) 95,74 %
08.11.2015 18:36 14,9 C 14,4 C 13,3 C 90 % 0 lf 1020,3 hPa 0,0 l/m 0 min 0 min 0 W/m 14,6 km/h (3 Bft) 93,62 %
08.11.2015 18:38 14,9 C 14,4 C 13,3 C 90 % 0 lf 1020,3 hPa 0,0 l/m 0 min 0 min 0 W/m 14,6 km/h (3 Bft) 93,62 %
08.11.2015 18:40 14,8 C 14,4 C 13,3 C 90 % 0 lf 1020,3 hPa 0,0 l/m 0 min 0 min 0 W/m 14,6 km/h (3 Bft) 95,74 %
08.11.2015 18:42 14,9 C 15,0 C 13,3 C 90 % 0 lf 1020,3 hPa 0,0 l/m 0 min 0 min 0 W/m 14,6 km/h (3 Bft) 93,62 %
08.11.2015 18:44 14,8 C 14,4 C 13,3 C 91 % 0 lf 1020,3 hPa 0,0 l/m 0 min 0 min 0 W/m 14,6 km/h (3 Bft) 91,30 %
08.11.2015 18:46 14,8 C 15,0 C 13,3 C 91 % 0 lf 1020,3 hPa 0,0 l/m 0 min 0 min 0 W/m 14,6 km/h (3 Bft) 95,74 %
08.11.2015 18:48 14,8 C 14,4 C 13,3 C 91 % 0 lf 1020,3 hPa 0,0 l/m 0 min 0 min 0 W/m 10,5 km/h (2 Bft) 93,62 %
08.11.2015 18:50 14,8 C 14,4 C 13,3 C 91 % 0 lf 1020,3 hPa 0,0 l/m 0 min 0 min 0 W/m 14,6 km/h (3 Bft) 95,74 %
08.11.2015 18:52 14,8 C 14,4 C 13,3 C 91 % 0 lf 1020,3 hPa 0,0 l/m 0 min 0 min 0 W/m 14,6 km/h (3 Bft) 95,74 %
08.11.2015 18:54 14,8 C 14,4 C 13,3 C 91 % 0 lf 1020,3 hPa 0,0 l/m 0 min 0 min 0 W/m 10,5 km/h (2 Bft) 93,48 %
08.11.2015 18:56 14,8 C 14,4 C 13,3 C 91 % 0 lf 1020,1 hPa 0,0 l/m 0 min 0 min 0 W/m 12,6 km/h (3 Bft) 93,62 %
08.11.2015 18:58 14,8 C 14,4 C 12,8 C 91 % 0 lf 1020,1 hPa 0,0 l/m 0 min 0 min 0 W/m 10,5 km/h (2 Bft) 95,74 %
08.11.2015 19:00 14,8 C 14,4 C 13,3 C 91 % 0 lf 1020,0 hPa 0,0 l/m 0 min 0 min 0 W/m 12,6 km/h (3 Bft) 93,62 %
08.11.2015 19:02 14,8 C 14,4 C 13,3 C 91 % 0 lf 1020,0 hPa 0,0 l/m 0 min 0 min 0 W/m 10,5 km/h (2 Bft) 93,62 %
08.11.2015 19:04 14,8 C 14,4 C 12,8 C 91 % 0 lf 1019,9 hPa 0,0 l/m 0 min 0 min 0 W/m 12,6 km/h (3 Bft) 93,62 %
08.11.2015 19:06 14,8 C 14,4 C 12,8 C 91 % 0 lf 1019,9 hPa 0,0 l/m 0 min 0 min 0 W/m 10,5 km/h (2 Bft) 95,65 %
08.11.2015 19:08 14,8 C 14,4 C 12,8 C 91 % 0 lf 1019,9 hPa 0,0 l/m 0 min 0 min 0 W/m 12,6 km/h (3 Bft) 93,62 %
08.11.2015 19:10 14,7 C 14,4 C 13,3 C 91 % 0 lf 1019,9 hPa 0,0 l/m 0 min 0 min 0 W/m 12,6 km/h (3 Bft) 95,74 %
08.11.2015 19:12 14,7 C 14,4 C 13,3 C 92 % 0 lf 1019,8 hPa 0,0 l/m 0 min 0 min 0 W/m 10,5 km/h (2 Bft) 88,57 %
08.11.2015 19:14 14,7 C 14,4 C 13,3 C 92 % 0 lf 1019,8 hPa 0,0 l/m 0 min 0 min 0 W/m 10,5 km/h (2 Bft) 100,00 %
08.11.2015 19:16 14,7 C 14,4 C 13,3 C 92 % 0 lf 1019,7 hPa 0,0 l/m 0 min 0 min 0 W/m 10,5 km/h (2 Bft) 97,87 %
08.11.2015 19:18 14,7 C 14,4 C 13,3 C 92 % 0 lf 1019,6 hPa 0,0 l/m 0 min 0 min 0 W/m 14,6 km/h (3 Bft) 100,00 %
08.11.2015 19:20 14,7 C 15,0 C 13,3 C 92 % 0 lf 1019,5 hPa 0,0 l/m 0 min 0 min 0 W/m 14,6 km/h (3 Bft) 95,65 %
08.11.2015 19:22 14,7 C 15,0 C 13,3 C 92 % 0 lf 1019,5 hPa 0,0 l/m 0 min 0 min 0 W/m 12,6 km/h (3 Bft) 100,00 %
08.11.2015 19:24 14,7 C 15,0 C 13,3 C 92 % 0 lf 1019,4 hPa 0,0 l/m 0 min 0 min 0 W/m 16,7 km/h (3 Bft) 100,00 %
08.11.2015 19:26 14,7 C 15,0 C 13,3 C 92 % 0 lf 1019,4 hPa 0,0 l/m 0 min 0 min 0 W/m 16,7 km/h (3 Bft) 95,74 %
08.11.2015 19:28 14,8 C 15,0 C 13,3 C 92 % 0 lf 1019,4 hPa 0,0 l/m 0 min 0 min 0 W/m 16,7 km/h (3 Bft) 91,49 %
08.11.2015 19:30 14,8 C 15,0 C 13,9 C 92 % 0 lf 1019,4 hPa 0,0 l/m 0 min 0 min 0 W/m 16,7 km/h (3 Bft) 93,62 %
08.11.2015 19:32 14,8 C 15,0 C 13,9 C 93 % 0 lf 1019,3 hPa 0,0 l/m 0 min 0 min 0 W/m 14,6 km/h (3 Bft) 92,73 %
08.11.2015 19:34 14,9 C 15,6 C 13,9 C 93 % 0 lf 1019,5 hPa 0,0 l/m 0 min 0 min 0 W/m 18,8 km/h (3 Bft) 95,65 %
08.11.2015 19:36 14,9 C 15,6 C 13,9 C 93 % 0 lf 1019,4 hPa 0,0 l/m 0 min 0 min 0 W/m 18,8 km/h (3 Bft) 93,62 %
08.11.2015 19:38 14,9 C 15,6 C 13,9 C 93 % 0 lf 1019,3 hPa 0,0 l/m 0 min 0 min 0 W/m 23,0 km/h (4 Bft) 91,49 %
08.11.2015 19:40 15,0 C 15,6 C 13,9 C 93 % 0 lf 1019,3 hPa 0,0 l/m 0 min 0 min 0 W/m 16,7 km/h (3 Bft) 93,62 %
08.11.2015 19:42 15,0 C 15,6 C 13,9 C 93 % 0 lf 1019,3 hPa 0,0 l/m 0 min 0 min 0 W/m 12,6 km/h (3 Bft) 95,92 %
08.11.2015 19:44 15,1 C 15,6 C 13,9 C 93 % 0 lf 1019,2 hPa 0,0 l/m 0 min 0 min 0 W/m 18,8 km/h (3 Bft) 95,65 %
08.11.2015 19:46 15,1 C 15,6 C 13,9 C 93 % 0 lf 1019,2 hPa 0,0 l/m 0 min 0 min 0 W/m 18,8 km/h (3 Bft) 93,62 %
08.11.2015 19:48 15,1 C 15,6 C 13,9 C 93 % 0 lf 1019,1 hPa 0,0 l/m 0 min 0 min 0 W/m 16,7 km/h (3 Bft) 95,74 %
08.11.2015 19:50 15,1 C 15,6 C 13,9 C 93 % 0 lf 1019,0 hPa 0,0 l/m 0 min 0 min 0 W/m 18,8 km/h (3 Bft) 95,74 %
08.11.2015 19:52 15,1 C 15,6 C 13,9 C 93 % 0 lf 1019,0 hPa 0,0 l/m 0 min 0 min 0 W/m 18,8 km/h (3 Bft) 93,62 %
08.11.2015 19:54 15,2 C 15,6 C 13,9 C 93 % 0 lf 1018,9 hPa 0,0 l/m 0 min 0 min 0 W/m 16,7 km/h (3 Bft) 93,62 %
08.11.2015 19:56 15,2 C 15,6 C 13,9 C 93 % 0 lf 1018,8 hPa 0,0 l/m 0 min 0 min 0 W/m 16,7 km/h (3 Bft) 95,65 %
08.11.2015 19:58 15,2 C 15,6 C 13,9 C 93 % 0 lf 1018,8 hPa 0,0 l/m 0 min 0 min 0 W/m 14,6 km/h (3 Bft) 95,74 %
08.11.2015 20:00 15,2 C 15,6 C 13,9 C 93 % 0 lf 1018,7 hPa 0,0 l/m 0 min 0 min 0 W/m 18,8 km/h (3 Bft) 97,87 %
08.11.2015 20:02 15,2 C 15,6 C 13,9 C 93 % 0 lf 1018,8 hPa 0,0 l/m 0 min 0 min 0 W/m 14,6 km/h (3 Bft) 95,92 %
08.11.2015 20:04 15,2 C 15,6 C 13,9 C 93 % 0 lf 1018,8 hPa 0,0 l/m 0 min 0 min 0 W/m 12,6 km/h (3 Bft) 95,74 %
08.11.2015 20:06 15,2 C 15,6 C 13,9 C 93 % 0 lf 1018,9 hPa 0,0 l/m 0 min 0 min 0 W/m 18,8 km/h (3 Bft) 95,65 %
08.11.2015 20:08 15,2 C 15,6 C 13,9 C 93 % 0 lf 1018,8 hPa 0,0 l/m 0 min 0 min 0 W/m 18,8 km/h (3 Bft) 95,74 %
08.11.2015 20:10 15,2 C 15,6 C 13,9 C 93 % 0 lf 1018,8 hPa 0,0 l/m 0 min 0 min 0 W/m 10,5 km/h (2 Bft) 97,87 %
08.11.2015 20:12 15,3 C 15,6 C 13,9 C 93 % 0 lf 1018,8 hPa 0,0 l/m 0 min 0 min 0 W/m 16,7 km/h (3 Bft) 100,00 %
08.11.2015 20:14 15,3 C 15,6 C 13,9 C 92 % 0 lf 1018,7 hPa 0,0 l/m 0 min 0 min 0 W/m 12,6 km/h (3 Bft) 97,87 %
08.11.2015 20:16 15,3 C 15,6 C 13,9 C 92 % 0 lf 1018,6 hPa 0,0 l/m 0 min 0 min 0 W/m 12,6 km/h (3 Bft) 100,00 %
08.11.2015 20:18 15,3 C 15,6 C 13,9 C 92 % 0 lf 1018,6 hPa 0,0 l/m 0 min 0 min 0 W/m 12,6 km/h (3 Bft) 100,00 %
08.11.2015 20:20 15,3 C 15,6 C 13,9 C 92 % 0 lf 1018,5 hPa 0,0 l/m 0 min 0 min 0 W/m 12,6 km/h (3 Bft) 95,74 %
08.11.2015 20:22 15,3 C 15,6 C 13,9 C 92 % 0 lf 1018,5 hPa 0,0 l/m 0 min 0 min 0 W/m 16,7 km/h (3 Bft) 100,00 %
08.11.2015 20:24 15,2 C 15,0 C 13,9 C 92 % 0 lf 1018,5 hPa 0,0 l/m 0 min 0 min 0 W/m 14,6 km/h (3 Bft) 97,87 %
08.11.2015 20:26 15,3 C 15,0 C 13,9 C 92 % 0 lf 1018,5 hPa 0,0 l/m 0 min 0 min 0 W/m 16,7 km/h (3 Bft) 97,87 %
08.11.2015 20:28 15,3 C 15,0 C 13,9 C 92 % 0 lf 1018,5 hPa 0,0 l/m 0 min 0 min 0 W/m 14,6 km/h (3 Bft) 100,00 %
08.11.2015 20:30 15,2 C 15,0 C 13,9 C 92 % 0 lf 1018,5 hPa 0,0 l/m 0 min 0 min 0 W/m 12,6 km/h (3 Bft) 97,87 %
08.11.2015 20:32 15,2 C 15,0 C 13,9 C 92 % 0 lf 1018,5 hPa 0,0 l/m 0 min 0 min 0 W/m 16,7 km/h (3 Bft) 97,14 %
08.11.2015 20:34 15,2 C 15,0 C 13,9 C 92 % 0 lf 1018,5 hPa 0,0 l/m 0 min 0 min 0 W/m 14,6 km/h (3 Bft) 97,87 %
08.11.2015 20:36 15,2 C 15,0 C 13,9 C 92 % 0 lf 1018,5 hPa 0,0 l/m 0 min 0 min 0 W/m 16,7 km/h (3 Bft) 97,87 %
08.11.2015 20:38 15,2 C 15,0 C 13,9 C 92 % 0 lf 1018,4 hPa 0,0 l/m 0 min 0 min 0 W/m 14,6 km/h (3 Bft) 95,74 %
08.11.2015 20:40 15,2 C 15,0 C 13,9 C 92 % 0 lf 1018,4 hPa 0,0 l/m 0 min 0 min 0 W/m 16,7 km/h (3 Bft) 97,87 %
08.11.2015 20:42 15,2 C 15,0 C 13,9 C 92 % 0 lf 1018,3 hPa 0,0 l/m 0 min 0 min 0 W/m 16,7 km/h (3 Bft) 100,00 %
08.11.2015 20:44 15,2 C 15,0 C 13,3 C 92 % 0 lf 1018,2 hPa 0,0 l/m 0 min 0 min 0 W/m 14,6 km/h (3 Bft) 100,00 %
08.11.2015 20:46 15,2 C 15,0 C 13,3 C 92 % 0 lf 1018,3 hPa 0,0 l/m 0 min 0 min 0 W/m 14,6 km/h (3 Bft) 95,74 %
08.11.2015 20:48 15,2 C 15,0 C 13,9 C 92 % 0 lf 1018,3 hPa 0,0 l/m 0 min 0 min 0 W/m 16,7 km/h (3 Bft) 100,00 %
08.11.2015 20:50 15,1 C 15,0 C 13,9 C 92 % 0 lf 1018,2 hPa 0,0 l/m 0 min 0 min 0 W/m 20,9 km/h (4 Bft) 100,00 %
08.11.2015 20:52 15,1 C 15,0 C 13,9 C 92 % 0 lf 1018,2 hPa 0,0 l/m 0 min 0 min 0 W/m 14,6 km/h (3 Bft) 100,00 %
08.11.2015 20:54 15,1 C 15,0 C 13,9 C 92 % 0 lf 1018,1 hPa 0,0 l/m 0 min 0 min 0 W/m 20,9 km/h (4 Bft) 95,74 %
08.11.2015 20:56 15,1 C 15,0 C 13,9 C 93 % 0 lf 1018,0 hPa 0,0 l/m 0 min 0 min 0 W/m 12,6 km/h (3 Bft) 100,00 %
08.11.2015 20:58 15,1 C 15,0 C 13,9 C 93 % 0 lf 1017,9 hPa 0,0 l/m 0 min 0 min 0 W/m 16,7 km/h (3 Bft) 97,87 %
08.11.2015 21:00 15,1 C 15,0 C 13,9 C 93 % 0 lf 1018,0 hPa 0,0 l/m 0 min 0 min 0 W/m 20,9 km/h (4 Bft) 97,87 %
08.11.2015 21:02 15,1 C 15,0 C 13,9 C 93 % 0 lf 1017,9 hPa 0,0 l/m 0 min 0 min 0 W/m 16,7 km/h (3 Bft) 98,04 %
08.11.2015 21:04 15,1 C 15,0 C 13,9 C 93 % 0 lf 1017,9 hPa 0,0 l/m 0 min 0 min 0 W/m 20,9 km/h (4 Bft) 97,87 %
08.11.2015 21:06 15,1 C 15,0 C 13,9 C 93 % 0 lf 1017,9 hPa 0,0 l/m 0 min 0 min 0 W/m 20,9 km/h (4 Bft) 100,00 %
08.11.2015 21:08 15,1 C 15,0 C 13,9 C 93 % 0 lf 1017,9 hPa 0,0 l/m 0 min 0 min 0 W/m 16,7 km/h (3 Bft) 97,87 %
08.11.2015 21:10 15,1 C 15,0 C 13,9 C 93 % 0 lf 1017,9 hPa 0,0 l/m 0 min 0 min 0 W/m 20,9 km/h (4 Bft) 97,87 %
08.11.2015 21:12 15,1 C 15,0 C 13,9 C 93 % 0 lf 1017,9 hPa 0,0 l/m 0 min 0 min 0 W/m 20,9 km/h (4 Bft) 97,87 %
08.11.2015 21:14 15,1 C 15,0 C 13,9 C 93 % 0 lf 1017,9 hPa 0,0 l/m 0 min 0 min 0 W/m 18,8 km/h (3 Bft) 97,87 %
08.11.2015 21:16 15,1 C 15,0 C 13,9 C 93 % 0 lf 1017,9 hPa 0,0 l/m 0 min 0 min 0 W/m 18,8 km/h (3 Bft) 93,75 %
08.11.2015 21:18 15,1 C 15,0 C 13,9 C 93 % 0 lf 1017,9 hPa 0,0 l/m 0 min 0 min 0 W/m 20,9 km/h (4 Bft) 95,65 %
08.11.2015 21:20 15,1 C 15,0 C 13,9 C 93 % 0 lf 1017,8 hPa 0,0 l/m 0 min 0 min 0 W/m 14,6 km/h (3 Bft) 95,74 %
08.11.2015 21:22 15,1 C 15,0 C 13,9 C 93 % 0 lf 1017,8 hPa 0,0 l/m 0 min 0 min 0 W/m 18,8 km/h (3 Bft) 95,83 %
08.11.2015 21:24 15,1 C 15,0 C 13,9 C 93 % 0 lf 1017,7 hPa 0,0 l/m 0 min 0 min 0 W/m 20,9 km/h (4 Bft) 93,62 %
08.11.2015 21:26 15,1 C 15,0 C 13,9 C 93 % 0 lf 1017,8 hPa 0,0 l/m 0 min 0 min 0 W/m 18,8 km/h (3 Bft) 89,36 %
08.11.2015 21:28 15,1 C 15,0 C 13,9 C 93 % 0 lf 1017,7 hPa 0,0 l/m 0 min 0 min 0 W/m 20,9 km/h (4 Bft) 93,48 %
08.11.2015 21:30 15,1 C 15,0 C 13,9 C 93 % 0 lf 1017,7 hPa 0,0 l/m 0 min 0 min 0 W/m 18,8 km/h (3 Bft) 95,74 %
08.11.2015 21:32 15,1 C 15,0 C 13,9 C 93 % 0 lf 1017,7 hPa 0,0 l/m 0 min 0 min 0 W/m 18,8 km/h (3 Bft) 95,74 %
08.11.2015 21:34 15,1 C 15,0 C 13,9 C 93 % 0 lf 1017,7 hPa 0,0 l/m 0 min 0 min 0 W/m 16,7 km/h (3 Bft) 97,87 %
08.11.2015 21:36 15,1 C 15,0 C 13,9 C 93 % 0 lf 1017,7 hPa 0,0 l/m 0 min 0 min 0 W/m 18,8 km/h (3 Bft) 93,62 %
08.11.2015 21:38 15,1 C 15,0 C 13,9 C 93 % 0 lf 1017,8 hPa 0,0 l/m 0 min 0 min 0 W/m 14,6 km/h (3 Bft) 93,48 %
08.11.2015 21:40 15,1 C 15,0 C 13,9 C 93 % 0 lf 1017,9 hPa 0,0 l/m 0 min 0 min 0 W/m 20,9 km/h (4 Bft) 95,74 %
08.11.2015 21:42 15,1 C 15,0 C 13,9 C 93 % 0 lf 1017,9 hPa 0,0 l/m 0 min 0 min 0 W/m 18,8 km/h (3 Bft) 93,62 %
08.11.2015 21:44 15,1 C 15,0 C 13,9 C 93 % 0 lf 1017,9 hPa 0,0 l/m 0 min 0 min 0 W/m 14,6 km/h (3 Bft) 97,87 %
08.11.2015 21:46 15,1 C 15,0 C 13,9 C 93 % 0 lf 1017,8 hPa 0,0 l/m 0 min 0 min 0 W/m 18,8 km/h (3 Bft) 91,49 %
08.11.2015 21:48 15,1 C 15,0 C 13,3 C 93 % 0 lf 1017,8 hPa 0,0 l/m 0 min 0 min 0 W/m 14,6 km/h (3 Bft) 95,74 %
08.11.2015 21:50 15,0 C 15,0 C 13,3 C 93 % 0 lf 1017,7 hPa 0,0 l/m 0 min 0 min 0 W/m 14,6 km/h (3 Bft) 95,65 %
08.11.2015 21:52 15,0 C 15,0 C 13,3 C 93 % 0 lf 1017,7 hPa 0,0 l/m 0 min 0 min 0 W/m 20,9 km/h (4 Bft) 95,74 %
08.11.2015 21:54 15,0 C 15,0 C 13,3 C 93 % 0 lf 1017,8 hPa 0,0 l/m 0 min 0 min 0 W/m 16,7 km/h (3 Bft) 91,49 %
08.11.2015 21:56 15,0 C 15,0 C 13,3 C 93 % 1 lf 1017,9 hPa 0,0 l/m 0 min 0 min 0 W/m 14,6 km/h (3 Bft) 91,49 %
08.11.2015 21:58 15,0 C 15,0 C 13,3 C 93 % 1 lf 1017,8 hPa 0,0 l/m 0 min 0 min 0 W/m 10,5 km/h (2 Bft) 91,49 %
08.11.2015 22:00 14,9 C 14,4 C 13,3 C 93 % 1 lf 1017,8 hPa 0,0 l/m 0 min 0 min 0 W/m 16,7 km/h (3 Bft) 93,62 %
08.11.2015 22:02 14,9 C 14,4 C 13,3 C 93 % 1 lf 1017,9 hPa 0,0 l/m 0 min 0 min 0 W/m 14,6 km/h (3 Bft) 97,56 %
08.11.2015 22:04 14,9 C 14,4 C 13,3 C 93 % 1 lf 1017,9 hPa 0,0 l/m 0 min 0 min 0 W/m 8,4 km/h (2 Bft) 91,49 %
08.11.2015 22:06 14,9 C 14,4 C 13,3 C 93 % 1 lf 1017,9 hPa 0,0 l/m 0 min 0 min 0 W/m 12,6 km/h (3 Bft) 93,48 %
08.11.2015 22:08 14,9 C 14,4 C 13,3 C 93 % 1 lf 1017,9 hPa 0,0 l/m 0 min 0 min 0 W/m 8,4 km/h (2 Bft) 93,62 %
08.11.2015 22:10 14,9 C 14,4 C 13,3 C 93 % 1 lf 1017,9 hPa 0,0 l/m 0 min 0 min 0 W/m 10,5 km/h (2 Bft) 95,74 %
08.11.2015 22:12 14,9 C 14,4 C 13,3 C 93 % 1 lf 1017,8 hPa 0,0 l/m 0 min 0 min 0 W/m 12,6 km/h (3 Bft) 97,87 %
08.11.2015 22:14 14,8 C 14,4 C 13,3 C 93 % 1 lf 1017,8 hPa 0,0 l/m 0 min 0 min 0 W/m 12,6 km/h (3 Bft) 100,00 %
08.11.2015 22:16 14,8 C 14,4 C 13,3 C 93 % 1 lf 1017,8 hPa 0,0 l/m 0 min 0 min 0 W/m 10,5 km/h (2 Bft) 95,74 %
08.11.2015 22:18 14,8 C 14,4 C 13,3 C 93 % 1 lf 1017,9 hPa 0,0 l/m 0 min 0 min 0 W/m 10,5 km/h (2 Bft) 93,48 %
08.11.2015 22:20 14,8 C 14,4 C 13,3 C 93 % 1 lf 1017,8 hPa 0,0 l/m 0 min 0 min 0 W/m 14,6 km/h (3 Bft) 93,62 %
08.11.2015 22:22 14,8 C 14,4 C 12,8 C 93 % 1 lf 1017,8 hPa 0,0 l/m 0 min 0 min 0 W/m 12,6 km/h (3 Bft) 93,75 %
08.11.2015 22:24 14,8 C 14,4 C 13,3 C 93 % 1 lf 1017,8 hPa 0,0 l/m 0 min 0 min 0 W/m 12,6 km/h (3 Bft) 95,74 %
08.11.2015 22:26 14,7 C 14,4 C 13,3 C 93 % 1 lf 1017,8 hPa 0,0 l/m 0 min 0 min 0 W/m 12,6 km/h (3 Bft) 95,74 %
08.11.2015 22:28 14,7 C 14,4 C 13,3 C 93 % 1 lf 1017,7 hPa 0,0 l/m 0 min 0 min 0 W/m 10,5 km/h (2 Bft) 93,48 %
08.11.2015 22:30 14,7 C 14,4 C 13,3 C 93 % 1 lf 1017,7 hPa 0,0 l/m 0 min 0 min 0 W/m 10,5 km/h (2 Bft) 95,74 %
08.11.2015 22:32 14,7 C 14,4 C 13,3 C 93 % 1 lf 1017,7 hPa 0,0 l/m 0 min 0 min 0 W/m 10,5 km/h (2 Bft) 96,00 %
08.11.2015 22:34 14,7 C 14,4 C 12,8 C 93 % 1 lf 1017,7 hPa 0,0 l/m 0 min 0 min 0 W/m 12,6 km/h (3 Bft) 93,62 %
08.11.2015 22:36 14,7 C 14,4 C 12,8 C 93 % 1 lf 1017,7 hPa 0,0 l/m 0 min 0 min 0 W/m 12,6 km/h (3 Bft) 93,62 %
08.11.2015 22:38 14,7 C 14,4 C 12,8 C 94 % 1 lf 1017,6 hPa 0,0 l/m 0 min 0 min 0 W/m 12,6 km/h (3 Bft) 91,49 %
08.11.2015 22:40 14,6 C 14,4 C 12,8 C 94 % 1 lf 1017,5 hPa 0,0 l/m 0 min 0 min 0 W/m 10,5 km/h (2 Bft) 95,65 %
08.11.2015 22:42 14,6 C 14,4 C 12,8 C 93 % 1 lf 1017,6 hPa 0,0 l/m 0 min 0 min 0 W/m 10,5 km/h (2 Bft) 95,92 %
08.11.2015 22:44 14,6 C 14,4 C 12,8 C 93 % 1 lf 1017,6 hPa 0,0 l/m 0 min 0 min 0 W/m 10,5 km/h (2 Bft) 93,62 %
08.11.2015 22:46 14,6 C 14,4 C 12,8 C 94 % 1 lf 1017,5 hPa 0,0 l/m 0 min 0 min 0 W/m 10,5 km/h (2 Bft) 95,74 %
08.11.2015 22:48 14,6 C 14,4 C 12,8 C 94 % 1 lf 1017,5 hPa 0,0 l/m 0 min 0 min 0 W/m 8,4 km/h (2 Bft) 95,65 %
08.11.2015 22:50 14,6 C 14,4 C 12,8 C 94 % 1 lf 1017,5 hPa 0,0 l/m 0 min 0 min 0 W/m 8,4 km/h (2 Bft) 91,49 %
08.11.2015 22:52 14,6 C 14,4 C 12,8 C 94 % 1 lf 1017,6 hPa 0,0 l/m 0 min 0 min 0 W/m 8,4 km/h (2 Bft) 95,74 %
08.11.2015 22:54 14,5 C 14,4 C 12,8 C 94 % 1 lf 1017,7 hPa 0,0 l/m 0 min 0 min 0 W/m 10,5 km/h (2 Bft) 93,62 %
08.11.2015 22:56 14,5 C 14,4 C 12,8 C 94 % 1 lf 1017,7 hPa 0,0 l/m 0 min 0 min 0 W/m 8,4 km/h (2 Bft) 93,62 %
08.11.2015 22:58 14,5 C 14,4 C 13,3 C 94 % 1 lf 1017,7 hPa 0,0 l/m 0 min 0 min 0 W/m 10,5 km/h (2 Bft) 95,74 %
08.11.2015 23:00 14,5 C 14,4 C 13,3 C 94 % 1 lf 1017,7 hPa 0,0 l/m 0 min 0 min 0 W/m 8,4 km/h (2 Bft) 97,83 %
08.11.2015 23:02 14,5 C 14,4 C 12,8 C 94 % 1 lf 1017,7 hPa 0,0 l/m 0 min 0 min 0 W/m 8,4 km/h (2 Bft) 94,44 %
08.11.2015 23:04 14,5 C 14,4 C 12,8 C 94 % 1 lf 1017,7 hPa 0,0 l/m 0 min 0 min 0 W/m 10,5 km/h (2 Bft) 93,48 %
08.11.2015 23:06 14,5 C 14,4 C 12,8 C 94 % 1 lf 1017,7 hPa 0,0 l/m 0 min 0 min 0 W/m 8,4 km/h (2 Bft) 91,49 %
08.11.2015 23:08 14,5 C 14,4 C 12,8 C 94 % 1 lf 1017,6 hPa 0,0 l/m 0 min 0 min 0 W/m 12,6 km/h (3 Bft) 97,87 %
08.11.2015 23:10 14,5 C 15,0 C 12,8 C 94 % 1 lf 1017,5 hPa 0,0 l/m 0 min 0 min 0 W/m 8,4 km/h (2 Bft) 95,74 %
08.11.2015 23:12 14,5 C 15,0 C 12,8 C 94 % 1 lf 1017,5 hPa 0,0 l/m 0 min 0 min 0 W/m 8,4 km/h (2 Bft) 98,11 %
08.11.2015 23:14 14,5 C 15,0 C 12,8 C 94 % 1 lf 1017,4 hPa 0,0 l/m 0 min 0 min 0 W/m 14,6 km/h (3 Bft) 97,87 %
08.11.2015 23:16 14,6 C 15,0 C 13,3 C 94 % 1 lf 1017,4 hPa 0,0 l/m 0 min 0 min 0 W/m 12,6 km/h (3 Bft) 97,83 %
08.11.2015 23:18 14,6 C 15,0 C 13,3 C 94 % 1 lf 1017,4 hPa 0,0 l/m 0 min 0 min 0 W/m 14,6 km/h (3 Bft) 97,87 %
08.11.2015 23:20 14,6 C 15,6 C 13,3 C 94 % 1 lf 1017,4 hPa 0,0 l/m 0 min 0 min 0 W/m 12,6 km/h (3 Bft) 95,74 %
08.11.2015 23:22 14,6 C 15,6 C 13,3 C 94 % 1 lf 1017,4 hPa 0,0 l/m 0 min 0 min 0 W/m 20,9 km/h (4 Bft) 95,83 %
08.11.2015 23:24 14,7 C 16,1 C 13,9 C 95 % 0 lf 1017,4 hPa 0,0 l/m 0 min 0 min 0 W/m 20,9 km/h (4 Bft) 95,74 %
08.11.2015 23:26 14,7 C 16,1 C 13,9 C 95 % 0 lf 1017,6 hPa 0,0 l/m 0 min 0 min 0 W/m 23,0 km/h (4 Bft) 93,62 %
08.11.2015 23:28 14,8 C 16,1 C 14,4 C 95 % 0 lf 1017,8 hPa 0,0 l/m 0 min 0 min 0 W/m 27,2 km/h (4 Bft) 97,83 %
08.11.2015 23:30 14,9 C 16,1 C 14,4 C 95 % 0 lf 1017,8 hPa 0,0 l/m 0 min 0 min 0 W/m 20,9 km/h (4 Bft) 97,87 %
08.11.2015 23:32 15,1 C 16,7 C 14,4 C 95 % 0 lf 1017,7 hPa 0,0 l/m 0 min 0 min 0 W/m 20,9 km/h (4 Bft) 95,74 %
08.11.2015 23:34 15,2 C 16,7 C 14,4 C 95 % 0 lf 1017,7 hPa 0,0 l/m 0 min 0 min 0 W/m 20,9 km/h (4 Bft) 95,74 %
08.11.2015 23:36 15,2 C 16,7 C 14,4 C 95 % 0 lf 1017,6 hPa 0,0 l/m 0 min 0 min 0 W/m 18,8 km/h (3 Bft) 95,74 %
08.11.2015 23:38 15,3 C 16,7 C 15,0 C 95 % 0 lf 1017,7 hPa 0,0 l/m 0 min 0 min 0 W/m 18,8 km/h (3 Bft) 95,65 %
08.11.2015 23:40 15,4 C 16,7 C 15,0 C 95 % 0 lf 1017,6 hPa 0,0 l/m 0 min 0 min 0 W/m 18,8 km/h (3 Bft) 95,74 %
08.11.2015 23:42 15,5 C 16,7 C 15,0 C 94 % 0 lf 1017,6 hPa 0,0 l/m 0 min 0 min 0 W/m 23,0 km/h (4 Bft) 97,87 %
08.11.2015 23:44 15,6 C 16,7 C 15,0 C 94 % 0 lf 1017,6 hPa 0,0 l/m 0 min 0 min 0 W/m 23,0 km/h (4 Bft) 95,74 %
08.11.2015 23:46 15,7 C 17,2 C 15,0 C 94 % 0 lf 1017,7 hPa 0,0 l/m 0 min 0 min 0 W/m 23,0 km/h (4 Bft) 93,62 %
08.11.2015 23:48 15,8 C 17,2 C 15,0 C 94 % 0 lf 1017,8 hPa 0,0 l/m 0 min 0 min 0 W/m 20,9 km/h (4 Bft) 97,87 %
08.11.2015 23:50 15,9 C 17,2 C 15,0 C 94 % 0 lf 1017,8 hPa 0,0 l/m 0 min 0 min 0 W/m 20,9 km/h (4 Bft) 97,87 %
08.11.2015 23:52 16,0 C 17,2 C 15,0 C 93 % 0 lf 1017,7 hPa 0,0 l/m 0 min 0 min 0 W/m 20,9 km/h (4 Bft) 97,87 %
08.11.2015 23:54 16,1 C 17,2 C 15,0 C 93 % 0 lf 1017,7 hPa 0,0 l/m 0 min 0 min 0 W/m 29,3 km/h (5 Bft) 97,87 %
08.11.2015 23:56 16,2 C 17,2 C 15,0 C 93 % 0 lf 1017,8 hPa 0,0 l/m 0 min 0 min 0 W/m 14,6 km/h (3 Bft) 100,00 %
08.11.2015 23:58 16,3 C 17,2 C 15,6 C 93 % 0 lf 1017,7 hPa 0,0 l/m 0 min 0 min 0 W/m 29,3 km/h (5 Bft) 95,74 %
_ Min-Zeit 07:44 07:10 06:48 12:04 00:00 23:14 - - - - 05:28 09:10
Minimum _ 9,7 C 8,3 C 7,8 C 80 % 0 lf 1017,4 hPa - - - - 0,0 km/h (0 Bft) 87,23 %
_ Max-Zeit 13:42 10:22 12:04 09:54 05:36 09:08 00:00 09:44 00:00 11:44 23:54 01:42
Maximum _ 16,7 C 22,8 C 15,6 C 98 % 15 lf 1028,8 hPa 0,0 l/m 2 min 0 min 416 W/m 29,3 km/h
W-SW (5 Bft)
100,00 %
Durchschnitt _ 14,3 C 14,7 C 12,8 C 90 % 3 lf 1024,2 hPa #0,0 l/m #4:32 h #0 min. 146 W/m 12,1 km/h (2 Bft) 95,96 %
© 2015 W. Hausmann